Time,TemperatureF,DewpointF,PressureIn,WindDirection,WindDirectionDegrees,WindSpeedMPH,WindSpeedGustMPH,Humidity,HourlyPrecipIn,Conditions,Clouds,dailyrainin,SoftwareType,DateUTC
2013-06-25 00:00:00,73.2,69.1,30.03,SSE,155,0.0,0.0,87,0.00,,---,0.00,VWS V14.01,2013-06-25 04:00:00,
2013-06-25 00:02:00,73.2,69.1,30.03,SSE,156,0.0,0.0,87,0.00,,---,0.00,VWS V14.01,2013-06-25 04:02:00,
2013-06-25 00:04:00,73.2,69.1,30.03,SSE,156,0.0,2.0,87,0.00,,---,0.00,VWS V14.01,2013-06-25 04:04:00,
2013-06-25 00:06:00,73.2,69.4,30.03,SSE,155,0.0,2.0,88,0.00,,---,0.00,VWS V14.01,2013-06-25 04:06:00,
2013-06-25 00:08:00,73.0,69.2,30.03,SSE,156,0.0,2.0,88,0.00,,---,0.00,VWS V14.01,2013-06-25 04:08:00,
2013-06-25 00:10:00,73.0,69.2,30.03,SSE,156,0.0,2.0,88,0.00,,---,0.00,VWS V14.01,2013-06-25 04:10:00,
2013-06-25 00:12:00,73.0,69.2,30.03,SSE,155,0.0,2.0,88,0.00,,---,0.00,VWS V14.01,2013-06-25 04:12:00,
2013-06-25 00:14:00,73.0,69.2,30.03,SSE,156,0.0,2.0,88,0.00,,---,0.00,VWS V14.01,2013-06-25 04:14:00,
2013-06-25 00:15:00,73.0,69.2,30.03,SSE,155,0.0,2.0,88,0.00,,---,0.00,VWS V14.01,2013-06-25 04:15:00,
2013-06-25 00:16:00,72.8,69.0,30.03,SSE,156,0.0,0.0,88,0.00,,---,0.00,VWS V14.01,2013-06-25 04:16:00,
2013-06-25 00:18:00,72.8,69.4,30.03,SSE,155,0.0,0.0,89,0.00,,---,0.00,VWS V14.01,2013-06-25 04:18:00,
2013-06-25 00:20:00,72.8,69.4,30.03,SSE,156,0.0,0.0,89,0.00,,---,0.00,VWS V14.01,2013-06-25 04:20:00,
2013-06-25 00:22:00,72.8,69.4,30.03,SSE,155,0.0,1.0,89,0.00,,---,0.00,VWS V14.01,2013-06-25 04:22:00,
2013-06-25 00:24:00,72.8,69.4,30.03,SSE,156,0.0,1.0,89,0.00,,---,0.00,VWS V14.01,2013-06-25 04:24:00,
2013-06-25 00:26:00,72.8,69.4,30.03,SSE,156,0.0,1.0,89,0.00,,---,0.00,VWS V14.01,2013-06-25 04:26:00,
2013-06-25 00:28:00,72.8,69.4,30.03,SSE,156,0.0,1.0,89,0.00,,---,0.00,VWS V14.01,2013-06-25 04:28:00,
2013-06-25 00:30:00,72.8,69.4,30.02,SSE,156,0.0,1.0,89,0.00,,---,0.00,VWS V14.01,2013-06-25 04:30:00,
2013-06-25 00:32:00,72.8,69.4,30.02,SSE,156,0.0,0.0,89,0.00,,---,0.00,VWS V14.01,2013-06-25 04:32:00,
2013-06-25 00:34:00,72.7,69.3,30.02,SSE,156,1.0,1.0,89,0.00,,---,0.00,VWS V14.01,2013-06-25 04:34:00,
2013-06-25 00:36:00,72.7,69.3,30.02,SSE,156,0.0,1.0,89,0.00,,---,0.00,VWS V14.01,2013-06-25 04:36:00,
2013-06-25 00:38:00,72.7,69.3,30.02,SSE,156,0.0,1.0,89,0.00,,---,0.00,VWS V14.01,2013-06-25 04:38:00,
2013-06-25 00:40:00,72.7,69.3,30.02,SSE,155,0.0,1.0,89,0.00,,---,0.00,VWS V14.01,2013-06-25 04:40:00,
2013-06-25 00:42:00,72.7,69.6,30.02,SE,146,0.0,3.0,90,0.00,,---,0.00,VWS V14.01,2013-06-25 04:42:00,
2013-06-25 00:44:00,72.7,69.6,30.02,SE,146,0.0,3.0,90,0.00,,---,0.00,VWS V14.01,2013-06-25 04:44:00,
2013-06-25 00:45:00,72.7,69.6,30.02,SE,146,0.0,3.0,90,0.00,,---,0.00,VWS V14.01,2013-06-25 04:45:00,
2013-06-25 00:46:00,72.7,69.6,30.02,SE,146,0.0,0.0,90,0.00,,---,0.00,VWS V14.01,2013-06-25 04:46:00,
2013-06-25 00:48:00,72.7,69.6,30.02,SE,146,0.0,1.0,90,0.00,,---,0.00,VWS V14.01,2013-06-25 04:48:00,
2013-06-25 00:50:00,72.7,69.6,30.02,SE,146,0.0,1.0,90,0.00,,---,0.00,VWS V14.01,2013-06-25 04:50:00,
2013-06-25 00:52:00,72.7,69.6,30.02,SE,146,0.0,1.0,90,0.00,,---,0.00,VWS V14.01,2013-06-25 04:52:00,
2013-06-25 00:54:00,72.7,69.6,30.02,SE,146,0.0,1.0,90,0.00,,---,0.00,VWS V14.01,2013-06-25 04:54:00,
2013-06-25 00:56:00,72.7,69.6,30.02,SE,146,0.0,1.0,90,0.00,,---,0.00,VWS V14.01,2013-06-25 04:56:00,
2013-06-25 00:58:00,72.7,69.6,30.02,SE,146,0.0,1.0,90,0.00,,---,0.00,VWS V14.01,2013-06-25 04:58:00,
2013-06-25 01:00:00,72.7,69.6,30.02,SE,146,0.0,1.0,90,0.00,,---,0.00,VWS V14.01,2013-06-25 05:00:00,
2013-06-25 01:02:00,72.7,69.6,30.02,SE,146,0.0,0.0,90,0.00,,---,0.00,VWS V14.01,2013-06-25 05:02:00,
2013-06-25 01:04:00,72.7,69.6,30.02,SE,146,0.0,0.0,90,0.00,,---,0.00,VWS V14.01,2013-06-25 05:04:00,
2013-06-25 01:06:00,72.7,69.6,30.02,SE,146,0.0,0.0,90,0.00,,---,0.00,VWS V14.01,2013-06-25 05:06:00,
2013-06-25 01:08:00,72.7,69.6,30.02,SE,146,0.0,1.0,90,0.00,,---,0.00,VWS V14.01,2013-06-25 05:08:00,
2013-06-25 01:10:00,72.5,69.4,30.02,SE,146,0.0,1.0,90,0.00,,---,0.00,VWS V14.01,2013-06-25 05:10:00,
2013-06-25 01:12:00,72.5,69.4,30.02,SE,146,0.0,1.0,90,0.00,,---,0.00,VWS V14.01,2013-06-25 05:12:00,
2013-06-25 01:14:00,72.5,69.4,30.01,SE,146,0.0,1.0,90,0.00,,---,0.00,VWS V14.01,2013-06-25 05:14:00,
2013-06-25 01:15:00,72.5,69.4,30.01,SE,146,0.0,1.0,90,0.00,,---,0.00,VWS V14.01,2013-06-25 05:15:00,
2013-06-25 01:16:00,72.5,69.4,30.01,SE,146,0.0,0.0,90,0.00,,---,0.00,VWS V14.01,2013-06-25 05:16:00,
2013-06-25 01:18:00,72.5,69.4,30.01,SE,146,0.0,0.0,90,0.00,,---,0.00,VWS V14.01,2013-06-25 05:18:00,
2013-06-25 01:20:00,72.3,69.2,30.01,SE,146,0.0,0.0,90,0.00,,---,0.00,VWS V14.01,2013-06-25 05:20:00,
2013-06-25 01:22:00,72.3,69.5,30.01,SE,146,0.0,2.0,91,0.00,,---,0.00,VWS V14.01,2013-06-25 05:22:00,
2013-06-25 01:24:00,72.3,69.5,30.01,SE,146,0.0,2.0,91,0.00,,---,0.00,VWS V14.01,2013-06-25 05:24:00,
2013-06-25 01:26:00,72.3,69.5,30.01,SE,146,0.0,2.0,91,0.00,,---,0.00,VWS V14.01,2013-06-25 05:26:00,
2013-06-25 01:28:00,72.3,69.5,30.01,SE,146,0.0,2.0,91,0.00,,---,0.00,VWS V14.01,2013-06-25 05:28:00,
2013-06-25 01:30:00,72.1,69.3,30.01,SE,146,0.0,2.0,91,0.00,,---,0.00,VWS V14.01,2013-06-25 05:30:00,
2013-06-25 01:33:00,72.1,69.3,30.01,SE,146,0.0,0.0,91,0.00,,---,0.00,VWS V14.01,2013-06-25 05:33:00,
2013-06-25 01:35:00,72.1,69.3,30.01,SE,146,0.0,0.0,91,0.00,,---,0.00,VWS V14.01,2013-06-25 05:35:00,
2013-06-25 01:37:00,72.1,69.3,30.01,SE,146,0.0,0.0,91,0.00,,---,0.00,VWS V14.01,2013-06-25 05:37:00,
2013-06-25 01:39:00,72.1,69.3,30.01,SE,146,0.0,0.0,91,0.00,,---,0.00,VWS V14.01,2013-06-25 05:39:00,
2013-06-25 01:40:00,72.1,69.3,30.01,SE,146,0.0,0.0,91,0.00,,---,0.00,VWS V14.01,2013-06-25 05:40:00,
2013-06-25 01:43:00,72.1,69.3,30.01,SE,146,0.0,0.0,91,0.00,,---,0.00,VWS V14.01,2013-06-25 05:43:00,
2013-06-25 01:44:00,72.0,69.2,30.01,SE,146,0.0,0.0,91,0.00,,---,0.00,VWS V14.01,2013-06-25 05:44:00,
2013-06-25 01:45:00,72.0,69.2,30.01,SE,146,0.0,0.0,91,0.00,,---,0.00,VWS V14.01,2013-06-25 05:45:00,
2013-06-25 01:47:00,72.0,69.2,30.01,SE,146,0.0,0.0,91,0.00,,---,0.00,VWS V14.01,2013-06-25 05:47:00,
2013-06-25 01:49:00,72.0,69.2,30.01,SE,146,0.0,0.0,91,0.00,,---,0.00,VWS V14.01,2013-06-25 05:49:00,
2013-06-25 01:51:00,72.0,69.2,30.01,SE,146,0.0,0.0,91,0.00,,---,0.00,VWS V14.01,2013-06-25 05:51:00,
2013-06-25 01:53:00,72.0,69.2,30.01,SE,146,0.0,0.0,91,0.00,,---,0.00,VWS V14.01,2013-06-25 05:53:00,
2013-06-25 01:55:00,72.0,69.2,30.01,SE,146,0.0,0.0,91,0.00,,---,0.00,VWS V14.01,2013-06-25 05:55:00,
2013-06-25 01:57:00,72.0,69.2,30.01,SE,146,0.0,0.0,91,0.00,,---,0.00,VWS V14.01,2013-06-25 05:57:00,
2013-06-25 01:59:00,72.0,69.2,30.01,SE,146,0.0,0.0,91,0.00,,---,0.00,VWS V14.01,2013-06-25 05:59:00,
2013-06-25 02:00:00,71.8,69.0,30.00,SE,146,0.0,0.0,91,0.00,,---,0.00,VWS V14.01,2013-06-25 06:00:00,
2013-06-25 02:01:00,71.8,69.0,30.00,SE,146,0.0,0.0,91,0.00,,---,0.00,VWS V14.01,2013-06-25 06:01:00,
2013-06-25 02:03:00,71.8,69.0,30.00,SE,146,0.0,0.0,91,0.00,,---,0.00,VWS V14.01,2013-06-25 06:03:00,
2013-06-25 02:05:00,71.8,69.0,30.00,SE,146,0.0,0.0,91,0.00,,---,0.00,VWS V14.01,2013-06-25 06:05:00,
2013-06-25 02:07:00,71.8,69.0,30.00,SE,146,0.0,1.0,91,0.00,,---,0.00,VWS V14.01,2013-06-25 06:07:00,
2013-06-25 02:09:00,71.8,69.0,30.00,SE,146,0.0,1.0,91,0.00,,---,0.00,VWS V14.01,2013-06-25 06:09:00,
2013-06-25 02:11:00,71.8,69.0,30.00,SE,146,1.0,1.0,91,0.00,,---,0.00,VWS V14.01,2013-06-25 06:11:00,
2013-06-25 02:13:00,71.8,69.0,30.00,SE,146,0.0,1.0,91,0.00,,---,0.00,VWS V14.01,2013-06-25 06:13:00,
2013-06-25 02:15:00,71.8,69.0,30.00,SE,146,0.0,1.0,91,0.00,,---,0.00,VWS V14.01,2013-06-25 06:15:00,
2013-06-25 02:17:00,71.8,69.0,30.00,SE,146,0.0,1.0,91,0.00,,---,0.00,VWS V14.01,2013-06-25 06:17:00,
2013-06-25 02:19:00,71.8,69.0,30.00,SE,146,0.0,3.0,91,0.00,,---,0.00,VWS V14.01,2013-06-25 06:19:00,
2013-06-25 02:21:00,71.8,69.0,30.00,SE,146,0.0,3.0,91,0.00,,---,0.00,VWS V14.01,2013-06-25 06:21:00,
2013-06-25 02:23:00,71.8,69.3,30.00,SSE,159,0.0,3.0,92,0.00,,---,0.00,VWS V14.01,2013-06-25 06:23:00,
2013-06-25 02:25:00,71.8,69.3,30.00,SSE,151,2.0,3.0,92,0.00,,---,0.00,VWS V14.01,2013-06-25 06:25:00,
2013-06-25 02:27:00,71.6,69.2,30.00,SSE,151,0.0,3.0,92,0.00,,---,0.00,VWS V14.01,2013-06-25 06:27:00,
2013-06-25 02:29:00,71.6,69.2,30.01,SSE,151,0.0,3.0,92,0.00,,---,0.00,VWS V14.01,2013-06-25 06:29:00,
2013-06-25 02:30:00,71.6,69.2,30.01,SSE,150,0.0,3.0,92,0.00,,---,0.00,VWS V14.01,2013-06-25 06:30:00,
2013-06-25 02:31:00,71.6,69.2,30.01,SSE,150,0.0,0.0,92,0.00,,---,0.00,VWS V14.01,2013-06-25 06:31:00,
2013-06-25 02:33:00,71.6,69.2,30.01,SSE,150,0.0,0.0,92,0.00,,---,0.00,VWS V14.01,2013-06-25 06:33:00,
2013-06-25 02:35:00,71.6,69.2,30.01,SSE,150,0.0,0.0,92,0.00,,---,0.00,VWS V14.01,2013-06-25 06:35:00,
2013-06-25 02:37:00,71.6,69.2,30.01,SSE,150,0.0,0.0,92,0.00,,---,0.00,VWS V14.01,2013-06-25 06:37:00,
2013-06-25 02:39:00,71.8,69.3,30.01,SSE,150,0.0,0.0,92,0.00,,---,0.00,VWS V14.01,2013-06-25 06:39:00,
2013-06-25 02:41:00,71.6,69.2,30.01,SSE,150,0.0,0.0,92,0.00,,---,0.00,VWS V14.01,2013-06-25 06:41:00,
2013-06-25 02:43:00,71.6,69.2,30.01,SSE,150,0.0,0.0,92,0.00,,---,0.00,VWS V14.01,2013-06-25 06:43:00,
2013-06-25 02:45:00,71.6,69.2,30.00,SSE,150,0.0,0.0,92,0.00,,---,0.00,VWS V14.01,2013-06-25 06:45:00,
2013-06-25 02:47:00,71.6,69.2,30.00,SSE,150,0.0,0.0,92,0.00,,---,0.00,VWS V14.01,2013-06-25 06:47:00,
2013-06-25 02:49:00,71.6,69.2,30.00,SSE,150,0.0,0.0,92,0.00,,---,0.00,VWS V14.01,2013-06-25 06:49:00,
2013-06-25 02:51:00,71.6,69.2,30.00,SSE,150,0.0,0.0,92,0.00,,---,0.00,VWS V14.01,2013-06-25 06:51:00,
2013-06-25 02:53:00,71.6,69.2,30.00,SSE,150,0.0,0.0,92,0.00,,---,0.00,VWS V14.01,2013-06-25 06:53:00,
2013-06-25 02:55:00,71.6,69.2,30.00,SSE,150,0.0,0.0,92,0.00,,---,0.00,VWS V14.01,2013-06-25 06:55:00,
2013-06-25 02:57:00,71.6,69.2,30.00,SSE,150,0.0,0.0,92,0.00,,---,0.00,VWS V14.01,2013-06-25 06:57:00,
2013-06-25 02:59:00,71.6,69.2,30.00,SSE,150,0.0,0.0,92,0.00,,---,0.00,VWS V14.01,2013-06-25 06:59:00,
2013-06-25 03:00:00,71.6,69.2,30.00,SSE,150,0.0,0.0,92,0.00,,---,0.00,VWS V14.01,2013-06-25 07:00:00,
2013-06-25 03:01:00,71.6,69.2,30.00,SSE,149,1.0,1.0,92,0.00,,---,0.00,VWS V14.01,2013-06-25 07:01:00,
2013-06-25 03:03:00,71.6,69.2,30.00,SSE,150,0.0,2.0,92,0.00,,---,0.00,VWS V14.01,2013-06-25 07:03:00,
2013-06-25 03:05:00,71.5,69.1,30.00,SSE,150,0.0,2.0,92,0.00,,---,0.00,VWS V14.01,2013-06-25 07:05:00,
2013-06-25 03:07:00,71.5,69.1,30.00,SSE,150,0.0,2.0,92,0.00,,---,0.00,VWS V14.01,2013-06-25 07:07:00,
2013-06-25 03:09:00,71.5,69.1,30.00,SSE,150,0.0,2.0,92,0.00,,---,0.00,VWS V14.01,2013-06-25 07:09:00,
2013-06-25 03:11:00,71.5,69.1,30.00,SSE,150,0.0,2.0,92,0.00,,---,0.00,VWS V14.01,2013-06-25 07:11:00,
2013-06-25 03:13:00,71.5,69.1,30.00,SSE,150,0.0,2.0,92,0.00,,---,0.00,VWS V14.01,2013-06-25 07:13:00,
2013-06-25 03:15:00,71.5,69.1,30.00,SSE,150,0.0,2.0,92,0.00,,---,0.00,VWS V14.01,2013-06-25 07:15:00,
2013-06-25 03:17:00,71.5,69.1,30.00,SSE,161,0.0,2.0,92,0.00,,---,0.00,VWS V14.01,2013-06-25 07:17:00,
2013-06-25 03:19:00,71.5,69.1,30.00,SSE,160,0.0,2.0,92,0.00,,---,0.00,VWS V14.01,2013-06-25 07:19:00,
2013-06-25 03:21:00,71.5,69.1,30.00,SSE,161,0.0,2.0,92,0.00,,---,0.00,VWS V14.01,2013-06-25 07:21:00,
2013-06-25 03:23:00,71.5,69.1,30.00,SSE,167,0.0,2.0,92,0.00,,---,0.00,VWS V14.01,2013-06-25 07:23:00,
2013-06-25 03:25:00,71.3,68.9,30.00,SSE,167,0.0,2.0,92,0.00,,---,0.00,VWS V14.01,2013-06-25 07:25:00,
2013-06-25 03:27:00,71.3,68.9,30.00,SSE,167,0.0,2.0,92,0.00,,---,0.00,VWS V14.01,2013-06-25 07:27:00,
2013-06-25 03:29:00,71.3,68.9,30.00,SSE,167,0.0,2.0,92,0.00,,---,0.00,VWS V14.01,2013-06-25 07:29:00,
2013-06-25 03:30:00,71.3,68.9,30.00,SSE,167,0.0,2.0,92,0.00,,---,0.00,VWS V14.01,2013-06-25 07:30:00,
2013-06-25 03:31:00,71.3,68.9,30.00,SSE,167,0.0,0.0,92,0.00,,---,0.00,VWS V14.01,2013-06-25 07:31:00,
2013-06-25 03:33:00,71.3,68.9,30.00,SSE,167,0.0,0.0,92,0.00,,---,0.00,VWS V14.01,2013-06-25 07:33:00,
2013-06-25 03:35:00,71.3,68.9,30.00,SSE,167,0.0,0.0,92,0.00,,---,0.00,VWS V14.01,2013-06-25 07:35:00,
2013-06-25 03:37:00,71.3,68.9,30.00,SSE,167,0.0,0.0,92,0.00,,---,0.00,VWS V14.01,2013-06-25 07:37:00,
2013-06-25 03:39:00,71.3,68.9,30.00,SSE,167,0.0,0.0,92,0.00,,---,0.00,VWS V14.01,2013-06-25 07:39:00,
2013-06-25 03:41:00,71.3,68.9,30.00,SSE,167,0.0,0.0,92,0.00,,---,0.00,VWS V14.01,2013-06-25 07:41:00,
2013-06-25 03:43:00,71.3,68.9,30.00,SSE,167,0.0,0.0,92,0.00,,---,0.00,VWS V14.01,2013-06-25 07:43:00,
2013-06-25 03:45:00,71.3,68.9,30.00,SSE,167,0.0,0.0,92,0.00,,---,0.00,VWS V14.01,2013-06-25 07:45:00,
2013-06-25 03:47:00,71.3,68.9,30.00,SSE,167,0.0,0.0,92,0.00,,---,0.00,VWS V14.01,2013-06-25 07:47:00,
2013-06-25 03:49:00,71.3,68.9,30.00,SSE,167,0.0,0.0,92,0.00,,---,0.00,VWS V14.01,2013-06-25 07:49:00,
2013-06-25 03:51:00,71.1,68.7,30.00,SSE,167,0.0,0.0,92,0.00,,---,0.00,VWS V14.01,2013-06-25 07:51:00,
2013-06-25 03:53:00,71.1,68.7,30.00,SSE,167,0.0,0.0,92,0.00,,---,0.00,VWS V14.01,2013-06-25 07:53:00,
2013-06-25 03:55:00,71.1,68.7,30.00,SSE,167,0.0,0.0,92,0.00,,---,0.00,VWS V14.01,2013-06-25 07:55:00,
2013-06-25 03:57:00,71.1,68.7,30.00,SSE,167,0.0,0.0,92,0.00,,---,0.00,VWS V14.01,2013-06-25 07:57:00,
2013-06-25 03:59:00,71.1,68.7,30.00,SSE,167,0.0,0.0,92,0.00,,---,0.00,VWS V14.01,2013-06-25 07:59:00,
2013-06-25 04:00:00,71.1,68.7,30.00,SSE,167,0.0,0.0,92,0.00,,---,0.00,VWS V14.01,2013-06-25 08:00:00,
2013-06-25 04:01:00,70.9,68.8,30.00,SSE,167,0.0,0.0,93,0.00,,---,0.00,VWS V14.01,2013-06-25 08:01:00,
2013-06-25 04:03:00,70.9,68.8,30.00,SSE,167,0.0,0.0,93,0.00,,---,0.00,VWS V14.01,2013-06-25 08:03:00,
2013-06-25 04:05:00,70.9,68.8,30.00,SSE,167,0.0,0.0,93,0.00,,---,0.00,VWS V14.01,2013-06-25 08:05:00,
2013-06-25 04:07:00,70.9,68.8,30.00,SSE,167,0.0,0.0,93,0.00,,---,0.00,VWS V14.01,2013-06-25 08:07:00,
2013-06-25 04:09:00,70.9,68.8,30.00,SSE,167,0.0,0.0,93,0.00,,---,0.00,VWS V14.01,2013-06-25 08:09:00,
2013-06-25 04:11:00,70.9,68.8,30.00,SSE,167,0.0,2.0,93,0.00,,---,0.00,VWS V14.01,2013-06-25 08:11:00,
2013-06-25 04:13:00,70.9,68.8,30.00,SSE,167,0.0,2.0,93,0.00,,---,0.00,VWS V14.01,2013-06-25 08:13:00,
2013-06-25 04:15:00,70.8,68.7,30.00,SSE,167,0.0,2.0,93,0.00,,---,0.00,VWS V14.01,2013-06-25 08:15:00,
2013-06-25 04:17:00,70.8,68.7,30.00,SSE,167,0.0,0.0,93,0.00,,---,0.00,VWS V14.01,2013-06-25 08:17:00,
2013-06-25 04:21:00,70.8,68.7,30.00,SSE,167,0.0,0.0,93,0.00,,---,0.00,VWS V14.01,2013-06-25 08:21:00,
2013-06-25 04:23:00,70.6,68.8,30.00,SSE,167,0.0,1.0,94,0.00,,---,0.00,VWS V14.01,2013-06-25 08:23:00,
2013-06-25 04:29:00,70.6,68.8,30.00,SSE,160,0.0,3.0,94,0.00,,---,0.00,VWS V14.01,2013-06-25 08:29:00,
2013-06-25 04:30:00,70.6,68.8,30.00,SSE,160,0.0,3.0,94,0.00,,---,0.00,VWS V14.01,2013-06-25 08:30:00,
2013-06-25 04:32:00,70.8,68.7,30.00,SSE,167,0.0,0.0,93,0.00,,---,0.00,VWS V14.01,2013-06-25 08:32:00,
2013-06-25 04:33:00,70.4,68.6,30.00,SSE,160,0.0,0.0,94,0.00,,---,0.00,VWS V14.01,2013-06-25 08:33:00,
2013-06-25 04:35:00,70.4,68.6,30.00,SSE,160,0.0,0.0,94,0.00,,---,0.00,VWS V14.01,2013-06-25 08:35:00,
2013-06-25 04:37:00,70.4,68.6,30.00,SSE,160,0.0,0.0,94,0.00,,---,0.00,VWS V14.01,2013-06-25 08:37:00,
2013-06-25 04:38:00,70.6,68.8,30.00,SSE,160,0.0,3.0,94,0.00,,---,0.00,VWS V14.01,2013-06-25 08:38:00,
2013-06-25 04:39:00,70.4,68.9,30.00,SSE,160,0.0,0.0,95,0.00,,---,0.00,VWS V14.01,2013-06-25 08:39:00,
2013-06-25 04:41:00,70.4,68.9,30.00,SSE,160,0.0,0.0,95,0.00,,---,0.00,VWS V14.01,2013-06-25 08:41:00,
2013-06-25 04:43:00,70.4,68.9,30.00,SSE,160,0.0,0.0,95,0.00,,---,0.00,VWS V14.01,2013-06-25 08:43:00,
2013-06-25 04:44:00,70.4,68.6,30.00,SSE,160,0.0,0.0,94,0.00,,---,0.00,VWS V14.01,2013-06-25 08:44:00,
2013-06-25 04:45:00,70.4,68.9,30.00,SSE,159,1.0,1.0,95,0.00,,---,0.00,VWS V14.01,2013-06-25 08:45:00,
2013-06-25 04:47:00,70.3,68.8,30.00,SSE,158,0.0,2.0,95,0.00,,---,0.00,VWS V14.01,2013-06-25 08:47:00,
2013-06-25 04:49:00,70.3,68.8,30.00,SSE,158,0.0,2.0,95,0.00,,---,0.00,VWS V14.01,2013-06-25 08:49:00,
2013-06-25 04:51:00,70.3,68.8,30.00,SSE,158,0.0,2.0,95,0.00,,---,0.00,VWS V14.01,2013-06-25 08:51:00,
2013-06-25 04:53:00,70.3,68.8,30.00,SSE,158,0.0,2.0,95,0.00,,---,0.00,VWS V14.01,2013-06-25 08:53:00,
2013-06-25 04:55:00,70.3,68.8,30.00,SSE,158,0.0,2.0,95,0.00,,---,0.00,VWS V14.01,2013-06-25 08:55:00,
2013-06-25 04:57:00,70.1,68.6,30.00,SSE,158,0.0,2.0,95,0.00,,---,0.00,VWS V14.01,2013-06-25 08:57:00,
2013-06-25 04:59:00,70.1,68.6,30.00,SSE,158,0.0,2.0,95,0.00,,---,0.00,VWS V14.01,2013-06-25 08:59:00,
2013-06-25 05:00:00,70.1,68.6,30.00,SSE,158,0.0,2.0,95,0.00,,---,0.00,VWS V14.01,2013-06-25 09:00:00,
2013-06-25 05:01:00,70.1,68.6,30.00,SSE,158,0.0,0.0,95,0.00,,---,0.00,VWS V14.01,2013-06-25 09:01:00,
2013-06-25 05:03:00,70.1,68.6,30.00,SSE,158,0.0,0.0,95,0.00,,---,0.00,VWS V14.01,2013-06-25 09:03:00,
2013-06-25 05:05:00,70.1,68.6,30.00,SSE,158,0.0,0.0,95,0.00,,---,0.00,VWS V14.01,2013-06-25 09:05:00,
2013-06-25 05:07:00,70.1,68.6,30.00,SSE,158,0.0,0.0,95,0.00,,---,0.00,VWS V14.01,2013-06-25 09:07:00,
2013-06-25 05:09:00,70.1,68.6,30.00,SSE,158,0.0,0.0,95,0.00,,---,0.00,VWS V14.01,2013-06-25 09:09:00,
2013-06-25 05:11:00,69.9,68.4,30.00,SSE,157,0.0,1.0,95,0.00,,---,0.00,VWS V14.01,2013-06-25 09:11:00,
2013-06-25 05:13:00,69.9,68.4,30.00,SSE,158,0.0,1.0,95,0.00,,---,0.00,VWS V14.01,2013-06-25 09:13:00,
2013-06-25 05:15:00,69.9,68.4,30.00,SSE,158,0.0,1.0,95,0.00,,---,0.00,VWS V14.01,2013-06-25 09:15:00,
2013-06-25 05:17:00,69.9,68.4,30.00,SSE,158,0.0,2.0,95,0.00,,---,0.00,VWS V14.01,2013-06-25 09:17:00,
2013-06-25 05:21:00,69.9,68.7,30.00,SSE,158,0.0,2.0,96,0.00,,---,0.00,VWS V14.01,2013-06-25 09:21:00,
2013-06-25 05:23:00,69.9,68.7,30.00,SSE,158,0.0,2.0,96,0.00,,---,0.00,VWS V14.01,2013-06-25 09:23:00,
2013-06-25 05:25:00,69.8,68.6,30.00,SSE,158,0.0,2.0,96,0.00,,---,0.00,VWS V14.01,2013-06-25 09:25:00,
2013-06-25 05:27:00,69.8,68.6,30.00,SSE,158,1.0,2.0,96,0.00,,---,0.00,VWS V14.01,2013-06-25 09:27:00,
2013-06-25 05:29:00,69.8,68.6,30.01,SSE,158,0.0,2.0,96,0.00,,---,0.00,VWS V14.01,2013-06-25 09:29:00,
2013-06-25 05:30:00,69.8,68.6,30.01,SSE,158,0.0,2.0,96,0.00,,---,0.00,VWS V14.01,2013-06-25 09:30:00,
2013-06-25 05:31:00,69.8,68.6,30.01,SSE,158,0.0,0.0,96,0.00,,---,0.00,VWS V14.01,2013-06-25 09:31:00,
2013-06-25 05:32:00,69.9,68.7,30.00,SSE,158,0.0,2.0,96,0.00,,---,0.00,VWS V14.01,2013-06-25 09:32:00,
2013-06-25 05:37:00,69.8,68.6,30.01,SSE,158,0.0,1.0,96,0.00,,---,0.00,VWS V14.01,2013-06-25 09:37:00,
2013-06-25 05:39:00,69.8,68.6,30.01,SSE,158,0.0,1.0,96,0.00,,---,0.00,VWS V14.01,2013-06-25 09:39:00,
2013-06-25 05:41:00,69.6,68.4,30.01,SSE,158,0.0,1.0,96,0.00,,---,0.00,VWS V14.01,2013-06-25 09:41:00,
2013-06-25 05:45:00,69.6,68.4,30.01,SSE,158,0.0,1.0,96,0.00,,---,0.00,VWS V14.01,2013-06-25 09:45:00,
2013-06-25 05:46:00,69.8,68.6,30.01,SSE,158,0.0,0.0,96,0.00,,---,0.00,VWS V14.01,2013-06-25 09:46:00,
2013-06-25 05:47:00,69.6,68.4,30.01,SSE,158,0.0,0.0,96,0.00,,---,0.00,VWS V14.01,2013-06-25 09:47:00,
2013-06-25 05:50:00,69.6,68.4,30.01,SSE,158,0.0,0.0,96,0.00,,---,0.00,VWS V14.01,2013-06-25 09:50:00,
2013-06-25 05:52:00,69.6,68.4,30.01,SSE,158,0.0,0.0,96,0.00,,---,0.00,VWS V14.01,2013-06-25 09:52:00,
2013-06-25 05:54:00,69.6,68.4,30.01,SSE,158,0.0,0.0,96,0.00,,---,0.00,VWS V14.01,2013-06-25 09:54:00,
2013-06-25 05:56:00,69.6,68.4,30.01,SSE,158,0.0,1.0,96,0.00,,---,0.00,VWS V14.01,2013-06-25 09:56:00,
2013-06-25 05:58:00,69.6,68.7,30.01,SSE,158,0.0,0.0,97,0.00,,---,0.00,VWS V14.01,2013-06-25 09:58:00,
2013-06-25 06:00:00,69.6,68.7,30.00,SSE,158,0.0,0.0,97,0.00,,---,0.00,VWS V14.01,2013-06-25 10:00:00,
2013-06-25 06:02:00,69.6,68.7,30.00,SSE,158,0.0,0.0,97,0.00,,---,0.00,VWS V14.01,2013-06-25 10:02:00,
2013-06-25 06:04:00,69.6,68.7,30.00,SSE,158,0.0,0.0,97,0.00,,---,0.00,VWS V14.01,2013-06-25 10:04:00,
2013-06-25 06:06:00,69.6,68.7,30.00,SSE,158,0.0,0.0,97,0.00,,---,0.00,VWS V14.01,2013-06-25 10:06:00,
2013-06-25 06:08:00,69.6,68.7,30.00,SSE,158,0.0,0.0,97,0.00,,---,0.00,VWS V14.01,2013-06-25 10:08:00,
2013-06-25 06:10:00,69.6,68.7,30.00,SSE,158,0.0,0.0,97,0.00,,---,0.00,VWS V14.01,2013-06-25 10:10:00,
2013-06-25 06:12:00,69.6,68.7,30.00,SSE,158,0.0,0.0,97,0.00,,---,0.00,VWS V14.01,2013-06-25 10:12:00,
2013-06-25 06:14:00,69.4,68.5,30.00,SSE,158,0.0,0.0,97,0.00,,---,0.00,VWS V14.01,2013-06-25 10:14:00,
2013-06-25 06:15:00,69.4,68.5,30.00,SSE,158,0.0,0.0,97,0.00,,---,0.00,VWS V14.01,2013-06-25 10:15:00,
2013-06-25 06:16:00,69.4,68.5,30.00,SSE,158,0.0,0.0,97,0.00,,---,0.00,VWS V14.01,2013-06-25 10:16:00,
2013-06-25 06:18:00,69.4,68.5,30.00,SSE,158,0.0,0.0,97,0.00,,---,0.00,VWS V14.01,2013-06-25 10:18:00,
2013-06-25 06:20:00,69.4,68.5,30.00,SSE,158,0.0,0.0,97,0.00,,---,0.00,VWS V14.01,2013-06-25 10:20:00,
2013-06-25 06:22:00,69.4,68.5,30.00,SSE,158,0.0,0.0,97,0.00,,---,0.00,VWS V14.01,2013-06-25 10:22:00,
2013-06-25 06:24:00,69.4,68.5,30.00,SSE,158,0.0,0.0,97,0.00,,---,0.00,VWS V14.01,2013-06-25 10:24:00,
2013-06-25 06:26:00,69.4,68.5,30.00,SSE,158,0.0,2.0,97,0.00,,---,0.00,VWS V14.01,2013-06-25 10:26:00,
2013-06-25 06:28:00,69.4,68.5,30.00,SSE,163,0.0,2.0,97,0.00,,---,0.00,VWS V14.01,2013-06-25 10:28:00,
2013-06-25 06:30:00,69.6,68.7,29.99,SSE,163,0.0,2.0,97,0.00,,---,0.00,VWS V14.01,2013-06-25 10:30:00,
2013-06-25 06:32:00,69.6,68.7,29.99,SSE,155,0.0,2.0,97,0.00,,---,0.00,VWS V14.01,2013-06-25 10:32:00,
2013-06-25 06:34:00,69.6,68.7,29.99,SSE,155,0.0,2.0,97,0.00,,---,0.00,VWS V14.01,2013-06-25 10:34:00,
2013-06-25 06:36:00,69.6,68.7,29.99,SSE,155,0.0,2.0,97,0.00,,---,0.00,VWS V14.01,2013-06-25 10:36:00,
2013-06-25 06:38:00,69.6,68.7,29.99,SSE,155,0.0,2.0,97,0.00,,---,0.00,VWS V14.01,2013-06-25 10:38:00,
2013-06-25 06:40:00,69.6,68.7,29.99,SSE,155,0.0,2.0,97,0.00,,---,0.00,VWS V14.01,2013-06-25 10:40:00,
2013-06-25 06:42:00,69.6,68.7,29.99,SSE,155,0.0,2.0,97,0.00,,---,0.00,VWS V14.01,2013-06-25 10:42:00,
2013-06-25 06:44:00,69.6,68.7,30.00,SSE,155,0.0,2.0,97,0.00,,---,0.00,VWS V14.01,2013-06-25 10:44:00,
2013-06-25 06:45:00,69.6,68.7,30.00,SSE,155,0.0,2.0,97,0.00,,---,0.00,VWS V14.01,2013-06-25 10:45:00,
2013-06-25 06:46:00,69.6,68.7,30.00,SSE,155,0.0,0.0,97,0.00,,---,0.00,VWS V14.01,2013-06-25 10:46:00,
2013-06-25 06:48:00,69.6,68.7,30.00,SSE,155,0.0,0.0,97,0.00,,---,0.00,VWS V14.01,2013-06-25 10:48:00,
2013-06-25 06:50:00,69.6,68.7,30.00,SSE,155,0.0,3.0,97,0.00,,---,0.00,VWS V14.01,2013-06-25 10:50:00,
2013-06-25 06:52:00,69.8,68.9,30.00,SSE,155,0.0,3.0,97,0.00,,---,0.00,VWS V14.01,2013-06-25 10:52:00,
2013-06-25 06:54:00,69.8,68.9,30.00,SSE,155,0.0,3.0,97,0.00,,---,0.00,VWS V14.01,2013-06-25 10:54:00,
2013-06-25 06:56:00,69.8,69.2,30.00,SSE,155,0.0,3.0,98,0.00,,---,0.00,VWS V14.01,2013-06-25 10:56:00,
2013-06-25 06:58:00,69.9,69.3,30.00,SSE,155,0.0,3.0,98,0.00,,---,0.00,VWS V14.01,2013-06-25 10:58:00,
2013-06-25 07:00:00,69.9,69.3,30.01,SSE,155,0.0,3.0,98,0.00,,---,0.00,VWS V14.01,2013-06-25 11:00:00,
2013-06-25 07:02:00,69.9,69.3,30.01,SSE,155,0.0,0.0,98,0.00,,---,0.00,VWS V14.01,2013-06-25 11:02:00,
2013-06-25 07:04:00,69.9,69.3,30.01,SSE,155,0.0,0.0,98,0.00,,---,0.00,VWS V14.01,2013-06-25 11:04:00,
2013-06-25 07:06:00,69.9,69.3,30.01,SSE,155,0.0,0.0,98,0.00,,---,0.00,VWS V14.01,2013-06-25 11:06:00,
2013-06-25 07:08:00,70.1,69.5,30.01,SSE,155,0.0,0.0,98,0.00,,---,0.00,VWS V14.01,2013-06-25 11:08:00,
2013-06-25 07:10:00,70.1,69.5,30.01,NW,315,3.0,3.0,98,0.00,,---,0.00,VWS V14.01,2013-06-25 11:10:00,
2013-06-25 07:12:00,70.1,69.2,30.01,WNW,293,0.0,3.0,97,0.00,,---,0.00,VWS V14.01,2013-06-25 11:12:00,
2013-06-25 07:14:00,70.1,69.2,30.02,WNW,293,0.0,3.0,97,0.00,,---,0.00,VWS V14.01,2013-06-25 11:14:00,
2013-06-25 07:15:00,70.1,69.2,30.02,WNW,293,0.0,3.0,97,0.00,,---,0.00,VWS V14.01,2013-06-25 11:15:00,
2013-06-25 07:16:00,70.1,69.2,30.02,WNW,293,0.0,0.0,97,0.00,,---,0.00,VWS V14.01,2013-06-25 11:16:00,
2013-06-25 07:18:00,70.3,69.4,30.02,WNW,283,0.0,1.0,97,0.00,,---,0.00,VWS V14.01,2013-06-25 11:18:00,
2013-06-25 07:20:00,70.3,69.4,30.02,WNW,283,0.0,1.0,97,0.00,,---,0.00,VWS V14.01,2013-06-25 11:20:00,
2013-06-25 07:22:00,70.3,69.4,30.02,WNW,283,0.0,1.0,97,0.00,,---,0.00,VWS V14.01,2013-06-25 11:22:00,
2013-06-25 07:24:00,70.4,69.5,30.02,WNW,283,0.0,1.0,97,0.00,,---,0.00,VWS V14.01,2013-06-25 11:24:00,
2013-06-25 07:26:00,70.4,69.5,30.02,WNW,293,0.0,1.0,97,0.00,,---,0.00,VWS V14.01,2013-06-25 11:26:00,
2013-06-25 07:28:00,70.4,69.5,30.02,WNW,293,0.0,1.0,97,0.00,,---,0.00,VWS V14.01,2013-06-25 11:28:00,
2013-06-25 07:30:00,70.6,69.7,30.02,WNW,297,0.0,2.0,97,0.00,,---,0.00,VWS V14.01,2013-06-25 11:30:00,
2013-06-25 07:32:00,70.6,69.4,30.02,WNW,297,0.0,0.0,96,0.00,,---,0.00,VWS V14.01,2013-06-25 11:32:00,
2013-06-25 07:34:00,70.6,69.4,30.02,WNW,297,0.0,0.0,96,0.00,,---,0.00,VWS V14.01,2013-06-25 11:34:00,
2013-06-25 07:36:00,70.8,69.6,30.02,WNW,297,0.0,0.0,96,0.00,,---,0.00,VWS V14.01,2013-06-25 11:36:00,
2013-06-25 07:38:00,70.9,69.7,30.02,WNW,297,0.0,0.0,96,0.00,,---,0.00,VWS V14.01,2013-06-25 11:38:00,
2013-06-25 07:40:00,70.9,69.7,30.02,WNW,297,0.0,0.0,96,0.00,,---,0.00,VWS V14.01,2013-06-25 11:40:00,
2013-06-25 07:42:00,71.1,69.6,30.02,WNW,297,0.0,0.0,95,0.00,,---,0.00,VWS V14.01,2013-06-25 11:42:00,
2013-06-25 07:44:00,71.1,69.6,30.02,WNW,297,0.0,0.0,95,0.00,,---,0.00,VWS V14.01,2013-06-25 11:44:00,
2013-06-25 07:45:00,71.1,69.6,30.02,WNW,297,0.0,0.0,95,0.00,,---,0.00,VWS V14.01,2013-06-25 11:45:00,
2013-06-25 07:46:00,71.1,69.6,30.02,WNW,297,0.0,0.0,95,0.00,,---,0.00,VWS V14.01,2013-06-25 11:46:00,
2013-06-25 07:48:00,71.3,69.5,30.02,WNW,283,0.0,1.0,94,0.00,,---,0.00,VWS V14.01,2013-06-25 11:48:00,
2013-06-25 07:50:00,71.5,69.7,30.02,WNW,283,0.0,1.0,94,0.00,,---,0.00,VWS V14.01,2013-06-25 11:50:00,
2013-06-25 07:52:00,71.5,69.7,30.02,WNW,283,0.0,1.0,94,0.00,,---,0.00,VWS V14.01,2013-06-25 11:52:00,
2013-06-25 07:54:00,71.6,69.5,30.02,West,278,0.0,1.0,93,0.00,,---,0.00,VWS V14.01,2013-06-25 11:54:00,
2013-06-25 07:56:00,71.8,69.7,30.02,West,278,0.0,1.0,93,0.00,,---,0.00,VWS V14.01,2013-06-25 11:56:00,
2013-06-25 07:58:00,71.8,69.7,30.02,West,278,0.0,1.0,93,0.00,,---,0.00,VWS V14.01,2013-06-25 11:58:00,
2013-06-25 08:00:00,72.0,69.6,30.02,West,278,0.0,1.0,92,0.00,,---,0.00,VWS V14.01,2013-06-25 12:00:00,
2013-06-25 08:02:00,72.1,69.3,30.02,West,278,0.0,1.0,91,0.00,,---,0.00,VWS V14.01,2013-06-25 12:02:00,
2013-06-25 08:04:00,72.3,69.5,30.02,West,278,0.0,1.0,91,0.00,,---,0.00,VWS V14.01,2013-06-25 12:04:00,
2013-06-25 08:06:00,72.3,69.5,30.02,West,278,0.0,1.0,91,0.00,,---,0.00,VWS V14.01,2013-06-25 12:06:00,
2013-06-25 08:08:00,72.5,69.7,30.02,West,278,0.0,1.0,91,0.00,,---,0.00,VWS V14.01,2013-06-25 12:08:00,
2013-06-25 08:10:00,72.7,69.6,30.02,West,278,0.0,1.0,90,0.00,,---,0.00,VWS V14.01,2013-06-25 12:10:00,
2013-06-25 08:12:00,72.8,69.7,30.02,West,278,0.0,1.0,90,0.00,,---,0.00,VWS V14.01,2013-06-25 12:12:00,
2013-06-25 08:14:00,72.8,69.4,30.03,West,271,0.0,4.0,89,0.00,,---,0.00,VWS V14.01,2013-06-25 12:14:00,
2013-06-25 08:15:00,72.8,69.4,30.03,NW,312,0.0,4.0,89,0.00,,---,0.00,VWS V14.01,2013-06-25 12:15:00,
2013-06-25 08:16:00,73.0,69.6,30.03,NW,312,0.0,0.0,89,0.00,,---,0.00,VWS V14.01,2013-06-25 12:16:00,
2013-06-25 08:18:00,73.0,69.2,30.03,NNW,341,0.0,5.0,88,0.00,,---,0.00,VWS V14.01,2013-06-25 12:18:00,
2013-06-25 08:20:00,73.2,69.1,30.03,NNW,346,0.0,5.0,87,0.00,,---,0.00,VWS V14.01,2013-06-25 12:20:00,
2013-06-25 08:22:00,73.3,69.2,30.03,SW,226,0.0,5.0,87,0.00,,---,0.00,VWS V14.01,2013-06-25 12:22:00,
2013-06-25 08:24:00,73.5,69.1,30.03,SW,236,0.0,5.0,86,0.00,,---,0.00,VWS V14.01,2013-06-25 12:24:00,
2013-06-25 08:26:00,73.5,69.1,30.03,WSW,245,0.0,5.0,86,0.00,,---,0.00,VWS V14.01,2013-06-25 12:26:00,
2013-06-25 08:28:00,73.7,69.3,30.03,WSW,244,0.0,5.0,86,0.00,,---,0.00,VWS V14.01,2013-06-25 12:28:00,
2013-06-25 08:30:00,73.9,69.1,30.03,WSW,244,0.0,5.0,85,0.00,,---,0.00,VWS V14.01,2013-06-25 12:30:00,
2013-06-25 08:32:00,74.0,69.2,30.03,WSW,244,0.0,0.0,85,0.00,,---,0.00,VWS V14.01,2013-06-25 12:32:00,
2013-06-25 08:34:00,74.0,69.2,30.03,WSW,244,0.0,0.0,85,0.00,,---,0.00,VWS V14.01,2013-06-25 12:34:00,
2013-06-25 08:36:00,74.2,69.4,30.03,WSW,244,0.0,1.0,85,0.00,,---,0.00,VWS V14.01,2013-06-25 12:36:00,
2013-06-25 08:38:00,74.4,69.6,30.03,WSW,244,0.0,1.0,85,0.00,,---,0.00,VWS V14.01,2013-06-25 12:38:00,
2013-06-25 08:40:00,74.6,69.4,30.03,WSW,244,0.0,1.0,84,0.00,,---,0.00,VWS V14.01,2013-06-25 12:40:00,
2013-06-25 08:42:00,74.6,69.1,30.03,WSW,247,0.0,4.0,83,0.00,,---,0.00,VWS V14.01,2013-06-25 12:42:00,
2013-06-25 08:44:00,74.7,69.2,30.03,WSW,247,0.0,4.0,83,0.00,,---,0.00,VWS V14.01,2013-06-25 12:44:00,
2013-06-25 08:45:00,74.9,69.4,30.03,WSW,247,0.0,4.0,83,0.00,,---,0.00,VWS V14.01,2013-06-25 12:45:00,
2013-06-25 08:46:00,74.9,69.4,30.03,WSW,247,0.0,0.0,83,0.00,,---,0.00,VWS V14.01,2013-06-25 12:46:00,
2013-06-25 08:48:00,75.1,69.6,30.03,WSW,247,0.0,0.0,83,0.00,,---,0.00,VWS V14.01,2013-06-25 12:48:00,
2013-06-25 08:50:00,75.3,69.4,30.03,WSW,247,0.0,0.0,82,0.00,,---,0.00,VWS V14.01,2013-06-25 12:50:00,
2013-06-25 08:52:00,75.3,69.4,30.03,WSW,247,0.0,0.0,82,0.00,,---,0.00,VWS V14.01,2013-06-25 12:52:00,
2013-06-25 08:54:00,75.4,69.5,30.03,SE,126,0.0,0.0,82,0.00,,---,0.00,VWS V14.01,2013-06-25 12:54:00,
2013-06-25 08:56:00,75.6,69.7,30.03,SE,126,0.0,0.0,82,0.00,,---,0.00,VWS V14.01,2013-06-25 12:56:00,
2013-06-25 08:58:00,75.8,69.6,30.03,WNW,300,0.0,1.0,81,0.00,,---,0.00,VWS V14.01,2013-06-25 12:58:00,
2013-06-25 09:00:00,75.8,69.6,30.03,WNW,286,0.0,1.0,81,0.00,,---,0.00,VWS V14.01,2013-06-25 13:00:00,
2013-06-25 09:02:00,76.0,69.8,30.03,WSW,248,0.0,0.0,81,0.00,,---,0.00,VWS V14.01,2013-06-25 13:02:00,
2013-06-25 09:04:00,76.0,69.0,30.03,WSW,248,0.0,1.0,79,0.00,,---,0.00,VWS V14.01,2013-06-25 13:04:00,
2013-06-25 09:06:00,76.1,69.1,30.03,West,259,0.0,1.0,79,0.00,,---,0.00,VWS V14.01,2013-06-25 13:06:00,
2013-06-25 09:08:00,76.1,69.1,30.03,WSW,248,0.0,1.0,79,0.00,,---,0.00,VWS V14.01,2013-06-25 13:08:00,
2013-06-25 09:10:00,76.3,69.3,30.03,WSW,248,0.0,1.0,79,0.00,,---,0.00,VWS V14.01,2013-06-25 13:10:00,
2013-06-25 09:12:00,76.3,68.9,30.03,WSW,248,0.0,1.0,78,0.00,,---,0.00,VWS V14.01,2013-06-25 13:12:00,
2013-06-25 09:14:00,76.5,69.5,30.02,WSW,248,0.0,1.0,79,0.00,,---,0.00,VWS V14.01,2013-06-25 13:14:00,
2013-06-25 09:15:00,76.5,69.5,30.02,WSW,248,0.0,1.0,79,0.00,,---,0.00,VWS V14.01,2013-06-25 13:15:00,
2013-06-25 09:16:00,76.5,68.8,30.02,WSW,248,1.0,1.0,77,0.00,,---,0.00,VWS V14.01,2013-06-25 13:16:00,
2013-06-25 09:18:00,76.7,68.9,30.02,WSW,248,0.0,1.0,77,0.00,,---,0.00,VWS V14.01,2013-06-25 13:18:00,
2013-06-25 09:20:00,76.8,69.1,30.02,West,275,0.0,3.0,77,0.00,,---,0.00,VWS V14.01,2013-06-25 13:20:00,
2013-06-25 09:22:00,77.0,69.2,30.02,West,275,0.0,3.0,77,0.00,,---,0.00,VWS V14.01,2013-06-25 13:22:00,
2013-06-25 09:24:00,77.2,69.1,30.02,West,275,0.0,3.0,76,0.00,,---,0.00,VWS V14.01,2013-06-25 13:24:00,
2013-06-25 09:26:00,77.4,69.6,30.02,West,275,0.0,3.0,77,0.00,,---,0.00,VWS V14.01,2013-06-25 13:26:00,
2013-06-25 09:28:00,77.4,69.2,30.02,West,276,0.0,3.0,76,0.00,,---,0.00,VWS V14.01,2013-06-25 13:28:00,
2013-06-25 09:30:00,77.6,69.4,30.02,WSW,252,0.0,3.0,76,0.00,,---,0.00,VWS V14.01,2013-06-25 13:30:00,
2013-06-25 09:32:00,77.7,69.5,30.02,WSW,252,0.0,0.0,76,0.00,,---,0.00,VWS V14.01,2013-06-25 13:32:00,
2013-06-25 09:34:00,77.7,69.2,30.02,WSW,247,1.0,2.0,75,0.00,,---,0.00,VWS V14.01,2013-06-25 13:34:00,
2013-06-25 09:36:00,77.9,68.9,30.02,WSW,247,0.0,2.0,74,0.00,,---,0.00,VWS V14.01,2013-06-25 13:36:00,
2013-06-25 09:38:00,77.9,69.3,30.02,WSW,246,0.0,2.0,75,0.00,,---,0.00,VWS V14.01,2013-06-25 13:38:00,
2013-06-25 09:40:00,78.1,69.5,30.02,WSW,246,0.0,2.0,75,0.00,,---,0.00,VWS V14.01,2013-06-25 13:40:00,
2013-06-25 09:42:00,78.3,69.3,30.02,WSW,246,0.0,2.0,74,0.00,,---,0.00,VWS V14.01,2013-06-25 13:42:00,
2013-06-25 09:44:00,78.3,69.7,30.02,WSW,246,0.0,2.0,75,0.00,,---,0.00,VWS V14.01,2013-06-25 13:44:00,
2013-06-25 09:45:00,78.3,69.7,30.02,WSW,246,0.0,2.0,75,0.00,,---,0.00,VWS V14.01,2013-06-25 13:45:00,
2013-06-25 09:46:00,78.5,69.9,30.02,WSW,246,0.0,0.0,75,0.00,,---,0.00,VWS V14.01,2013-06-25 13:46:00,
2013-06-25 09:48:00,78.5,69.5,30.02,WSW,246,0.0,0.0,74,0.00,,---,0.00,VWS V14.01,2013-06-25 13:48:00,
2013-06-25 09:50:00,78.6,70.0,30.02,WSW,246,0.0,0.0,75,0.00,,---,0.00,VWS V14.01,2013-06-25 13:50:00,
2013-06-25 09:52:00,78.6,69.6,30.02,WSW,246,0.0,0.0,74,0.00,,---,0.00,VWS V14.01,2013-06-25 13:52:00,
2013-06-25 09:54:00,78.8,70.6,30.02,WSW,246,0.0,1.0,76,0.00,,---,0.00,VWS V14.01,2013-06-25 13:54:00,
2013-06-25 09:57:00,78.8,69.4,30.02,WSW,246,1.0,1.0,73,0.00,,---,0.00,VWS V14.01,2013-06-25 13:57:00,
2013-06-25 09:58:00,79.0,69.2,30.02,WSW,246,0.0,1.0,72,0.00,,---,0.00,VWS V14.01,2013-06-25 13:58:00,
2013-06-25 10:00:00,79.0,70.0,30.02,WSW,246,0.0,1.0,74,0.00,,---,0.00,VWS V14.01,2013-06-25 14:00:00,
2013-06-25 10:02:00,79.2,69.4,30.02,West,281,0.0,1.0,72,0.00,,---,0.00,VWS V14.01,2013-06-25 14:02:00,
2013-06-25 10:05:00,79.4,69.2,30.02,West,262,0.0,1.0,71,0.00,,---,0.00,VWS V14.01,2013-06-25 14:05:00,
2013-06-25 10:07:00,79.4,69.6,30.02,WSW,249,0.0,1.0,72,0.00,,---,0.00,VWS V14.01,2013-06-25 14:07:00,
2013-06-25 10:08:00,79.4,69.6,30.02,WSW,249,0.0,1.0,72,0.00,,---,0.00,VWS V14.01,2013-06-25 14:08:00,
2013-06-25 10:11:00,79.6,69.4,30.02,WSW,249,0.0,1.0,71,0.00,,---,0.00,VWS V14.01,2013-06-25 14:11:00,
2013-06-25 10:13:00,79.8,70.0,30.02,WSW,249,0.0,1.0,72,0.00,,---,0.00,VWS V14.01,2013-06-25 14:13:00,
2013-06-25 10:15:00,79.9,70.1,30.03,SE,141,0.0,2.0,72,0.00,,---,0.00,VWS V14.01,2013-06-25 14:15:00,
2013-06-25 10:17:00,80.1,69.9,30.03,SE,141,0.0,0.0,71,0.00,,---,0.00,VWS V14.01,2013-06-25 14:17:00,
2013-06-25 10:19:00,80.3,70.1,30.03,SE,141,0.0,0.0,71,0.00,,---,0.00,VWS V14.01,2013-06-25 14:19:00,
2013-06-25 10:21:00,80.5,70.2,30.03,SE,141,0.0,1.0,71,0.00,,---,0.00,VWS V14.01,2013-06-25 14:21:00,
2013-06-25 10:23:00,80.7,70.4,30.03,SE,141,0.0,1.0,71,0.00,,---,0.00,VWS V14.01,2013-06-25 14:23:00,
2013-06-25 10:25:00,80.7,69.6,30.03,WNW,285,0.0,3.0,69,0.00,,---,0.00,VWS V14.01,2013-06-25 14:25:00,
2013-06-25 10:27:00,80.7,69.6,30.03,WSW,251,0.0,3.0,69,0.00,,---,0.00,VWS V14.01,2013-06-25 14:27:00,
2013-06-25 10:29:00,80.7,69.2,30.03,WNW,293,0.0,3.0,68,0.00,,---,0.00,VWS V14.01,2013-06-25 14:29:00,
2013-06-25 10:30:00,80.7,69.6,30.03,SSW,208,0.0,3.0,69,0.00,,---,0.00,VWS V14.01,2013-06-25 14:30:00,
2013-06-25 10:31:00,80.9,69.8,30.03,SSW,208,0.0,0.0,69,0.00,,---,0.00,VWS V14.01,2013-06-25 14:31:00,
2013-06-25 10:33:00,80.9,71.0,30.03,North,355,0.0,3.0,72,0.00,,---,0.00,VWS V14.01,2013-06-25 14:33:00,
2013-06-25 10:35:00,81.1,69.6,30.03,NNW,328,0.0,3.0,68,0.00,,---,0.00,VWS V14.01,2013-06-25 14:35:00,
2013-06-25 10:37:00,81.2,69.6,30.03,NNW,328,0.0,3.0,68,0.00,,---,0.00,VWS V14.01,2013-06-25 14:37:00,
2013-06-25 10:39:00,81.4,69.8,30.03,NNW,328,0.0,3.0,68,0.00,,---,0.00,VWS V14.01,2013-06-25 14:39:00,
2013-06-25 10:41:00,81.6,70.9,30.03,NNW,328,0.0,3.0,70,0.00,,---,0.00,VWS V14.01,2013-06-25 14:41:00,
2013-06-25 10:43:00,81.8,70.2,30.03,WSW,254,0.0,3.0,68,0.00,,---,0.00,VWS V14.01,2013-06-25 14:43:00,
2013-06-25 10:45:00,81.8,68.9,30.03,WSW,247,0.0,3.0,65,0.00,,---,0.00,VWS V14.01,2013-06-25 14:45:00,
2013-06-25 10:47:00,81.8,69.3,30.03,WSW,247,0.0,0.0,66,0.00,,---,0.00,VWS V14.01,2013-06-25 14:47:00,
2013-06-25 10:49:00,82.0,69.1,30.03,WSW,247,0.0,0.0,65,0.00,,---,0.00,VWS V14.01,2013-06-25 14:49:00,
2013-06-25 10:51:00,82.2,70.2,30.03,WSW,248,0.0,0.0,67,0.00,,---,0.00,VWS V14.01,2013-06-25 14:51:00,
2013-06-25 10:53:00,82.4,69.9,30.03,WSW,248,1.0,1.0,66,0.00,,---,0.00,VWS V14.01,2013-06-25 14:53:00,
2013-06-25 10:55:00,82.4,69.5,30.03,WSW,245,0.0,1.0,65,0.00,,---,0.00,VWS V14.01,2013-06-25 14:55:00,
2013-06-25 10:57:00,82.4,69.5,30.03,WSW,246,0.0,2.0,65,0.00,,---,0.00,VWS V14.01,2013-06-25 14:57:00,
2013-06-25 10:59:00,82.4,70.3,30.03,WSW,246,0.0,2.0,67,0.00,,---,0.00,VWS V14.01,2013-06-25 14:59:00,
2013-06-25 11:00:00,82.6,71.4,30.03,WSW,246,0.0,2.0,69,0.00,,---,0.00,VWS V14.01,2013-06-25 15:00:00,
2013-06-25 11:01:00,82.6,70.1,30.03,WSW,246,0.0,1.0,66,0.00,,---,0.00,VWS V14.01,2013-06-25 15:01:00,
2013-06-25 11:03:00,83.0,70.0,30.03,SE,132,0.0,1.0,65,0.00,,---,0.00,VWS V14.01,2013-06-25 15:03:00,
2013-06-25 11:05:00,83.2,69.3,30.03,SE,132,0.0,1.0,63,0.00,,---,0.00,VWS V14.01,2013-06-25 15:05:00,
2013-06-25 11:07:00,83.4,69.9,30.03,SE,132,0.0,1.0,64,0.00,,---,0.00,VWS V14.01,2013-06-25 15:07:00,
2013-06-25 11:09:00,83.8,70.3,30.03,SSE,153,0.0,1.0,64,0.00,,---,0.00,VWS V14.01,2013-06-25 15:09:00,
2013-06-25 11:11:00,84.0,69.6,30.03,South,171,0.0,1.0,62,0.00,,---,0.00,VWS V14.01,2013-06-25 15:11:00,
2013-06-25 11:13:00,84.1,69.7,30.03,WNW,285,0.0,2.0,62,0.00,,---,0.00,VWS V14.01,2013-06-25 15:13:00,
2013-06-25 11:15:00,84.0,68.6,30.02,WNW,283,0.0,3.0,60,0.00,,---,0.00,VWS V14.01,2013-06-25 15:15:00,
2013-06-25 11:17:00,83.8,68.9,30.02,WNW,283,0.0,0.0,61,0.00,,---,0.00,VWS V14.01,2013-06-25 15:17:00,
2013-06-25 11:19:00,83.6,68.3,30.02,WNW,283,0.0,3.0,60,0.00,,---,0.00,VWS V14.01,2013-06-25 15:19:00,
2013-06-25 11:21:00,83.6,69.7,30.02,NNW,328,0.0,3.0,63,0.00,,---,0.00,VWS V14.01,2013-06-25 15:21:00,
2013-06-25 11:23:00,83.8,69.9,30.02,NNW,328,0.0,3.0,63,0.00,,---,0.00,VWS V14.01,2013-06-25 15:23:00,
2013-06-25 11:25:00,84.0,69.6,30.02,West,277,0.0,3.0,62,0.00,,---,0.00,VWS V14.01,2013-06-25 15:25:00,
2013-06-25 11:27:00,84.1,71.1,30.02,West,277,0.0,3.0,65,0.00,,---,0.00,VWS V14.01,2013-06-25 15:27:00,
2013-06-25 11:29:00,84.3,69.9,30.02,West,277,0.0,3.0,62,0.00,,---,0.00,VWS V14.01,2013-06-25 15:29:00,
2013-06-25 11:30:00,84.3,70.3,30.02,SE,138,1.0,3.0,63,0.00,,---,0.00,VWS V14.01,2013-06-25 15:30:00,
2013-06-25 11:31:00,84.5,71.9,30.02,SE,142,0.0,2.0,66,0.00,,---,0.00,VWS V14.01,2013-06-25 15:31:00,
2013-06-25 11:33:00,84.9,72.7,30.02,SE,142,0.0,2.0,67,0.00,,---,0.00,VWS V14.01,2013-06-25 15:33:00,
2013-06-25 11:35:00,84.9,70.9,30.02,SSE,155,0.0,2.0,63,0.00,,---,0.00,VWS V14.01,2013-06-25 15:35:00,
2013-06-25 11:37:00,84.9,69.5,30.02,North,352,4.0,9.0,60,0.00,,---,0.00,VWS V14.01,2013-06-25 15:37:00,
2013-06-25 11:39:00,84.9,69.0,30.02,NNW,328,0.0,9.0,59,0.00,,---,0.00,VWS V14.01,2013-06-25 15:39:00,
2013-06-25 11:41:00,84.9,68.5,30.02,NNW,328,0.0,9.0,58,0.00,,---,0.00,VWS V14.01,2013-06-25 15:41:00,
2013-06-25 11:43:00,84.9,70.0,30.02,NW,319,0.0,9.0,61,0.00,,---,0.00,VWS V14.01,2013-06-25 15:43:00,
2013-06-25 11:45:00,84.7,69.3,30.02,NW,314,0.0,9.0,60,0.00,,---,0.00,VWS V14.01,2013-06-25 15:45:00,
2013-06-25 11:47:00,84.7,68.8,30.02,NW,324,0.0,1.0,59,0.00,,---,0.00,VWS V14.01,2013-06-25 15:47:00,
2013-06-25 11:49:00,84.9,69.0,30.02,NW,324,0.0,1.0,59,0.00,,---,0.00,VWS V14.01,2013-06-25 15:49:00,
2013-06-25 11:51:00,85.1,69.2,30.02,NW,320,0.0,1.0,59,0.00,,---,0.00,VWS V14.01,2013-06-25 15:51:00,
2013-06-25 11:53:00,85.1,68.7,30.02,NNW,343,0.0,7.0,58,0.00,,---,0.00,VWS V14.01,2013-06-25 15:53:00,
2013-06-25 11:55:00,85.1,70.2,30.02,NNW,331,0.0,7.0,61,0.00,,---,0.00,VWS V14.01,2013-06-25 15:55:00,
2013-06-25 11:57:00,85.3,70.3,30.02,NNW,331,0.0,7.0,61,0.00,,---,0.00,VWS V14.01,2013-06-25 15:57:00,
2013-06-25 11:59:00,85.5,69.6,30.02,WSW,255,1.0,7.0,59,0.00,,---,0.00,VWS V14.01,2013-06-25 15:59:00,
2013-06-25 12:00:00,85.5,68.5,30.02,WSW,255,0.0,7.0,57,0.00,,---,0.00,VWS V14.01,2013-06-25 16:00:00,
2013-06-25 12:01:00,85.5,69.6,30.02,WSW,255,0.0,0.0,59,0.00,,---,0.00,VWS V14.01,2013-06-25 16:01:00,
2013-06-25 12:03:00,85.3,68.3,30.02,WNW,285,0.0,1.0,57,0.00,,---,0.00,VWS V14.01,2013-06-25 16:03:00,
2013-06-25 12:05:00,85.3,68.3,30.02,West,266,0.0,1.0,57,0.00,,---,0.00,VWS V14.01,2013-06-25 16:05:00,
2013-06-25 12:07:00,85.5,69.6,30.02,WNW,291,0.0,1.0,59,0.00,,---,0.00,VWS V14.01,2013-06-25 16:07:00,
2013-06-25 12:09:00,85.5,69.1,30.02,West,276,0.0,3.0,58,0.00,,---,0.00,VWS V14.01,2013-06-25 16:09:00,
2013-06-25 12:11:00,85.3,68.9,30.02,WSW,257,0.0,3.0,58,0.00,,---,0.00,VWS V14.01,2013-06-25 16:11:00,
2013-06-25 12:13:00,85.3,69.8,30.02,NNW,330,0.0,3.0,60,0.00,,---,0.00,VWS V14.01,2013-06-25 16:13:00,
2013-06-25 12:15:00,85.3,69.4,30.01,NW,323,5.0,5.0,59,0.00,,---,0.00,VWS V14.01,2013-06-25 16:15:00,
2013-06-25 12:17:00,85.3,69.4,30.01,NNW,346,0.0,6.0,59,0.00,,---,0.00,VWS V14.01,2013-06-25 16:17:00,
2013-06-25 12:19:00,85.3,69.8,30.01,NW,317,1.0,6.0,60,0.00,,---,0.00,VWS V14.01,2013-06-25 16:19:00,
2013-06-25 12:21:00,85.3,70.3,30.01,NW,324,3.0,6.0,61,0.00,,---,0.00,VWS V14.01,2013-06-25 16:21:00,
2013-06-25 12:25:00,85.1,70.2,30.01,NNW,345,0.0,6.0,61,0.00,,---,0.00,VWS V14.01,2013-06-25 16:25:00,
2013-06-25 12:27:00,85.1,69.7,30.01,West,276,0.0,6.0,60,0.00,,---,0.00,VWS V14.01,2013-06-25 16:27:00,
2013-06-25 12:29:00,85.3,70.3,30.01,WNW,293,0.0,6.0,61,0.00,,---,0.00,VWS V14.01,2013-06-25 16:29:00,
2013-06-25 12:30:00,85.3,70.3,30.01,WNW,293,0.0,6.0,61,0.00,,---,0.00,VWS V14.01,2013-06-25 16:30:00,
2013-06-25 12:31:00,85.3,70.3,30.01,WNW,293,0.0,0.0,61,0.00,,---,0.00,VWS V14.01,2013-06-25 16:31:00,
2013-06-25 12:33:00,85.9,68.4,30.01,WNW,295,0.0,0.0,56,0.00,,---,0.00,VWS V14.01,2013-06-25 16:33:00,
2013-06-25 12:35:00,85.9,68.4,30.01,North,1,0.0,1.0,56,0.00,,---,0.00,VWS V14.01,2013-06-25 16:35:00,
2013-06-25 12:36:00,85.1,70.2,30.01,North,355,0.0,6.0,61,0.00,,---,0.00,VWS V14.01,2013-06-25 16:36:00,
2013-06-25 12:37:00,86.1,66.4,30.01,North,355,0.0,1.0,52,0.00,,---,0.00,VWS V14.01,2013-06-25 16:37:00,
2013-06-25 12:39:00,86.1,67.5,30.01,North,359,1.0,1.0,54,0.00,,---,0.00,VWS V14.01,2013-06-25 16:39:00,
2013-06-25 12:41:00,86.3,68.2,30.01,NNW,342,2.0,3.0,55,0.00,,---,0.00,VWS V14.01,2013-06-25 16:41:00,
2013-06-25 12:45:00,86.5,69.5,30.00,North,0,0.0,3.0,57,0.00,,---,0.00,VWS V14.01,2013-06-25 16:45:00,
2013-06-25 12:47:00,87.0,68.9,30.00,SW,228,6.0,7.0,55,0.00,,---,0.00,VWS V14.01,2013-06-25 16:47:00,
2013-06-25 12:49:00,86.5,67.9,30.00,WSW,244,0.0,14.0,54,0.00,,---,0.00,VWS V14.01,2013-06-25 16:49:00,
2013-06-25 12:51:00,86.1,67.0,30.00,West,268,6.0,14.0,53,0.00,,---,0.00,VWS V14.01,2013-06-25 16:51:00,
2013-06-25 12:53:00,85.5,68.0,30.00,WSW,249,0.0,14.0,56,0.00,,---,0.00,VWS V14.01,2013-06-25 16:53:00,
2013-06-25 12:55:00,84.9,66.4,30.00,SW,227,0.0,14.0,54,0.00,,---,0.00,VWS V14.01,2013-06-25 16:55:00,
2013-06-25 12:56:00,86.5,67.9,30.01,WNW,295,0.0,3.0,54,0.00,,---,0.00,VWS V14.01,2013-06-25 16:56:00,
2013-06-25 12:57:00,84.3,65.9,30.00,SW,233,0.0,14.0,54,0.00,,---,0.00,VWS V14.01,2013-06-25 16:57:00,
2013-06-25 12:59:00,84.0,66.1,30.01,SW,233,0.0,14.0,55,0.00,,---,0.00,VWS V14.01,2013-06-25 16:59:00,
2013-06-25 13:00:00,83.6,65.7,30.01,SW,233,1.0,14.0,55,0.00,,---,0.00,VWS V14.01,2013-06-25 17:00:00,
2013-06-25 13:01:00,82.8,65.5,30.01,SW,219,0.0,7.0,56,0.00,,---,0.00,VWS V14.01,2013-06-25 17:01:00,
2013-06-25 13:03:00,81.8,66.1,30.01,SW,231,0.0,7.0,59,0.00,,---,0.00,VWS V14.01,2013-06-25 17:03:00,
2013-06-25 13:05:00,81.1,65.9,30.01,SW,217,0.0,7.0,60,0.00,,---,0.00,VWS V14.01,2013-06-25 17:05:00,
2013-06-25 13:07:00,80.3,65.6,30.01,WSW,239,0.0,7.0,61,0.00,,---,0.00,VWS V14.01,2013-06-25 17:07:00,
2013-06-25 13:09:00,79.8,66.1,30.01,WSW,239,0.0,7.0,63,0.00,,---,0.00,VWS V14.01,2013-06-25 17:09:00,
2013-06-25 13:11:00,79.4,66.6,30.01,WSW,239,0.0,7.0,65,0.00,,---,0.00,VWS V14.01,2013-06-25 17:11:00,
2013-06-25 13:13:00,79.2,67.3,30.01,WSW,239,0.0,7.0,67,0.00,,---,0.00,VWS V14.01,2013-06-25 17:13:00,
2013-06-25 13:15:00,79.2,67.3,30.01,WSW,239,0.0,7.0,67,0.00,,---,0.00,VWS V14.01,2013-06-25 17:15:00,
2013-06-25 13:17:00,79.0,67.1,30.01,WSW,239,0.0,0.0,67,0.00,,---,0.00,VWS V14.01,2013-06-25 17:17:00,
2013-06-25 13:19:00,78.6,66.3,30.01,WSW,239,0.0,0.0,66,0.00,,---,0.00,VWS V14.01,2013-06-25 17:19:00,
2013-06-25 13:21:00,78.3,67.3,30.01,South,174,0.0,0.0,69,0.00,,---,0.00,VWS V14.01,2013-06-25 17:21:00,
2013-06-25 13:23:00,78.1,67.5,30.01,South,174,0.0,0.0,70,0.00,,---,0.00,VWS V14.01,2013-06-25 17:23:00,
2013-06-25 13:25:00,77.7,67.1,30.01,South,174,0.0,0.0,70,0.00,,---,0.00,VWS V14.01,2013-06-25 17:25:00,
2013-06-25 13:27:00,77.4,67.3,30.01,South,174,0.0,0.0,71,0.00,,---,0.00,VWS V14.01,2013-06-25 17:27:00,
2013-06-25 13:29:00,77.4,67.3,30.01,South,174,0.0,0.0,71,0.00,,---,0.00,VWS V14.01,2013-06-25 17:29:00,
2013-06-25 13:30:00,77.4,67.3,30.01,South,174,0.0,0.0,71,0.00,,---,0.00,VWS V14.01,2013-06-25 17:30:00,
2013-06-25 13:32:00,77.2,66.7,30.01,South,174,0.0,0.0,70,0.00,,---,0.00,VWS V14.01,2013-06-25 17:32:00,
2013-06-25 13:34:00,77.2,67.1,30.01,South,174,0.0,0.0,71,0.00,,---,0.00,VWS V14.01,2013-06-25 17:34:00,
2013-06-25 13:36:00,77.2,67.1,30.01,South,174,0.0,0.0,71,0.00,,---,0.00,VWS V14.01,2013-06-25 17:36:00,
2013-06-25 13:37:00,77.2,67.1,30.01,SE,136,0.0,0.0,71,0.00,,---,0.00,VWS V14.01,2013-06-25 17:37:00,
2013-06-25 13:40:00,77.4,67.3,30.01,SE,136,0.0,0.0,71,0.00,,---,0.00,VWS V14.01,2013-06-25 17:40:00,
2013-06-25 13:42:00,77.4,67.3,30.01,SE,136,0.0,0.0,71,0.00,,---,0.00,VWS V14.01,2013-06-25 17:42:00,
2013-06-25 13:44:00,77.4,67.3,30.01,SE,136,0.0,0.0,71,0.00,,---,0.00,VWS V14.01,2013-06-25 17:44:00,
2013-06-25 13:45:00,77.4,67.7,30.00,SE,136,0.0,0.0,72,0.00,,---,0.00,VWS V14.01,2013-06-25 17:45:00,
2013-06-25 13:46:00,77.4,67.7,30.00,SE,136,0.0,0.0,72,0.00,,---,0.00,VWS V14.01,2013-06-25 17:46:00,
2013-06-25 13:48:00,77.6,68.3,30.00,SE,136,0.0,0.0,73,0.00,,---,0.00,VWS V14.01,2013-06-25 17:48:00,
2013-06-25 13:50:00,77.7,68.4,30.00,SE,136,0.0,0.0,73,0.00,,---,0.00,VWS V14.01,2013-06-25 17:50:00,
2013-06-25 13:52:00,78.1,69.1,30.00,SE,136,0.0,0.0,74,0.00,,---,0.00,VWS V14.01,2013-06-25 17:52:00,
2013-06-25 13:54:00,78.5,68.7,30.00,SE,136,0.0,0.0,72,0.00,,---,0.00,VWS V14.01,2013-06-25 17:54:00,
2013-06-25 13:56:00,78.8,68.2,30.00,SE,136,0.0,1.0,70,0.00,,---,0.00,VWS V14.01,2013-06-25 17:56:00,
2013-06-25 13:58:00,79.2,69.0,30.00,SE,137,0.0,1.0,71,0.00,,---,0.00,VWS V14.01,2013-06-25 17:58:00,
2013-06-25 14:00:00,79.4,68.3,30.00,WNW,288,0.0,4.0,69,0.00,,---,0.00,VWS V14.01,2013-06-25 18:00:00,
2013-06-25 14:02:00,79.6,69.0,30.00,WNW,288,0.0,0.0,70,0.00,,---,0.00,VWS V14.01,2013-06-25 18:02:00,
2013-06-25 14:04:00,79.9,67.5,30.00,WNW,288,0.0,0.0,66,0.00,,---,0.00,VWS V14.01,2013-06-25 18:04:00,
2013-06-25 14:06:00,80.1,66.8,30.00,WNW,288,0.0,0.0,64,0.00,,---,0.00,VWS V14.01,2013-06-25 18:06:00,
2013-06-25 14:08:00,80.5,67.2,30.00,WNW,288,0.0,0.0,64,0.00,,---,0.00,VWS V14.01,2013-06-25 18:08:00,
2013-06-25 14:10:00,80.7,68.3,30.00,WNW,288,0.0,1.0,66,0.00,,---,0.00,VWS V14.01,2013-06-25 18:10:00,
2013-06-25 14:12:00,81.2,68.3,30.00,WNW,288,0.0,1.0,65,0.00,,---,0.00,VWS V14.01,2013-06-25 18:12:00,
2013-06-25 14:14:00,81.4,67.6,29.98,WNW,288,0.0,1.0,63,0.00,,---,0.00,VWS V14.01,2013-06-25 18:14:00,
2013-06-25 14:15:00,81.8,68.4,29.98,WNW,288,0.0,1.0,64,0.00,,---,0.00,VWS V14.01,2013-06-25 18:15:00,
2013-06-25 14:16:00,81.8,67.5,29.98,WNW,288,0.0,0.0,62,0.00,,---,0.00,VWS V14.01,2013-06-25 18:16:00,
2013-06-25 14:18:00,82.4,67.1,29.98,WNW,288,0.0,0.0,60,0.00,,---,0.00,VWS V14.01,2013-06-25 18:18:00,
2013-06-25 14:20:00,82.8,66.5,29.98,WNW,288,0.0,0.0,58,0.00,,---,0.00,VWS V14.01,2013-06-25 18:20:00,
2013-06-25 14:22:00,83.2,66.9,29.98,WNW,288,0.0,0.0,58,0.00,,---,0.00,VWS V14.01,2013-06-25 18:22:00,
2013-06-25 14:24:00,83.8,67.0,29.98,WNW,288,0.0,0.0,57,0.00,,---,0.00,VWS V14.01,2013-06-25 18:24:00,
2013-06-25 14:26:00,84.1,68.2,29.98,WNW,288,0.0,0.0,59,0.00,,---,0.00,VWS V14.01,2013-06-25 18:26:00,
2013-06-25 14:28:00,84.5,67.1,29.98,WNW,288,0.0,0.0,56,0.00,,---,0.00,VWS V14.01,2013-06-25 18:28:00,
2013-06-25 14:30:00,84.7,67.8,29.97,WNW,288,0.0,0.0,57,0.00,,---,0.00,VWS V14.01,2013-06-25 18:30:00,
2013-06-25 14:32:00,84.9,66.4,29.97,WNW,288,0.0,0.0,54,0.00,,---,0.00,VWS V14.01,2013-06-25 18:32:00,
2013-06-25 14:34:00,85.1,66.1,29.97,WNW,288,0.0,0.0,53,0.00,,---,0.00,VWS V14.01,2013-06-25 18:34:00,
2013-06-25 14:36:00,85.3,65.7,29.97,WNW,288,0.0,0.0,52,0.00,,---,0.00,VWS V14.01,2013-06-25 18:36:00,
2013-06-25 14:38:00,85.1,65.5,29.97,WNW,288,0.0,1.0,52,0.00,,---,0.00,VWS V14.01,2013-06-25 18:38:00,
2013-06-25 14:40:00,85.3,66.8,29.97,WNW,288,0.0,1.0,54,0.00,,---,0.00,VWS V14.01,2013-06-25 18:40:00,
2013-06-25 14:42:00,85.5,67.0,29.97,WNW,288,0.0,1.0,54,0.00,,---,0.00,VWS V14.01,2013-06-25 18:42:00,
2013-06-25 14:44:00,85.5,65.9,29.96,WNW,288,0.0,1.0,52,0.00,,---,0.00,VWS V14.01,2013-06-25 18:44:00,
2013-06-25 14:45:00,85.5,65.9,29.96,WNW,288,0.0,1.0,52,0.00,,---,0.00,VWS V14.01,2013-06-25 18:45:00,
2013-06-25 14:46:00,85.7,68.2,29.96,WNW,288,0.0,0.0,56,0.00,,---,0.00,VWS V14.01,2013-06-25 18:46:00,
2013-06-25 14:48:00,85.7,66.6,29.96,WNW,288,0.0,0.0,53,0.00,,---,0.00,VWS V14.01,2013-06-25 18:48:00,
2013-06-25 14:50:00,85.9,67.3,29.96,WNW,288,0.0,0.0,54,0.00,,---,0.00,VWS V14.01,2013-06-25 18:50:00,
2013-06-25 14:52:00,86.3,67.7,29.96,WNW,288,0.0,0.0,54,0.00,,---,0.00,VWS V14.01,2013-06-25 18:52:00,
2013-06-25 14:54:00,86.7,67.0,29.96,WNW,288,0.0,0.0,52,0.00,,---,0.00,VWS V14.01,2013-06-25 18:54:00,
2013-06-25 14:56:00,87.2,66.9,29.96,WNW,288,0.0,0.0,51,0.00,,---,0.00,VWS V14.01,2013-06-25 18:56:00,
2013-06-25 14:58:00,87.8,68.0,29.96,WNW,288,0.0,1.0,52,0.00,,---,0.00,VWS V14.01,2013-06-25 18:58:00,
2013-06-25 15:00:00,88.2,68.9,29.95,WNW,288,0.0,1.0,53,0.00,,---,0.00,VWS V14.01,2013-06-25 19:00:00,
2013-06-25 15:02:00,88.6,67.6,29.95,WNW,288,0.0,0.0,50,0.00,,---,0.00,VWS V14.01,2013-06-25 19:02:00,
2013-06-25 15:04:00,88.6,68.2,29.95,WNW,288,0.0,1.0,51,0.00,,---,0.00,VWS V14.01,2013-06-25 19:04:00,
2013-06-25 15:06:00,88.6,67.6,29.95,WNW,288,0.0,1.0,50,0.00,,---,0.00,VWS V14.01,2013-06-25 19:06:00,
2013-06-25 15:08:00,88.8,67.8,29.95,SSE,156,0.0,1.0,50,0.00,,---,0.00,VWS V14.01,2013-06-25 19:08:00,
2013-06-25 15:10:00,89.3,67.7,29.95,SSE,151,0.0,1.0,49,0.00,,---,0.00,VWS V14.01,2013-06-25 19:10:00,
2013-06-25 15:12:00,89.5,68.4,29.95,SSE,151,0.0,1.0,50,0.00,,---,0.00,VWS V14.01,2013-06-25 19:12:00,
2013-06-25 15:14:00,89.9,68.2,29.95,SSE,152,0.0,1.0,49,0.00,,---,0.00,VWS V14.01,2013-06-25 19:14:00,
2013-06-25 15:15:00,89.9,68.8,29.95,SSE,151,0.0,1.0,50,0.00,,---,0.00,VWS V14.01,2013-06-25 19:15:00,
2013-06-25 15:16:00,90.3,66.7,29.95,SSE,151,0.0,0.0,46,0.00,,---,0.00,VWS V14.01,2013-06-25 19:16:00,
2013-06-25 15:18:00,90.5,65.6,29.95,SSE,151,0.0,0.0,44,0.00,,---,0.00,VWS V14.01,2013-06-25 19:18:00,
2013-06-25 15:20:00,91.0,68.6,29.95,SE,143,0.0,1.0,48,0.00,,---,0.00,VWS V14.01,2013-06-25 19:20:00,
2013-06-25 15:22:00,91.2,68.2,29.95,SE,143,0.0,1.0,47,0.00,,---,0.00,VWS V14.01,2013-06-25 19:22:00,
2013-06-25 15:24:00,91.6,68.5,29.95,SE,143,0.0,1.0,47,0.00,,---,0.00,VWS V14.01,2013-06-25 19:24:00,
2013-06-25 15:26:00,91.8,68.7,29.95,SE,143,0.0,1.0,47,0.00,,---,0.00,VWS V14.01,2013-06-25 19:26:00,
2013-06-25 15:28:00,92.1,68.4,29.95,SE,143,0.0,1.0,46,0.00,,---,0.00,VWS V14.01,2013-06-25 19:28:00,
2013-06-25 15:30:00,92.1,68.4,29.94,SE,146,0.0,1.0,46,0.00,,---,0.00,VWS V14.01,2013-06-25 19:30:00,
2013-06-25 15:32:00,92.1,69.0,29.94,SE,146,0.0,0.0,47,0.00,,---,0.00,VWS V14.01,2013-06-25 19:32:00,
2013-06-25 15:34:00,92.1,68.4,29.94,SE,146,0.0,0.0,46,0.00,,---,0.00,VWS V14.01,2013-06-25 19:34:00,
2013-06-25 15:36:00,91.8,68.7,29.94,SE,146,0.0,0.0,47,0.00,,---,0.00,VWS V14.01,2013-06-25 19:36:00,
2013-06-25 15:38:00,91.8,69.3,29.94,SE,146,0.0,0.0,48,0.00,,---,0.00,VWS V14.01,2013-06-25 19:38:00,
2013-06-25 15:40:00,91.4,69.0,29.94,SSE,160,0.0,1.0,48,0.00,,---,0.00,VWS V14.01,2013-06-25 19:40:00,
2013-06-25 15:42:00,91.0,70.4,29.94,SSW,193,0.0,1.0,51,0.00,,---,0.00,VWS V14.01,2013-06-25 19:42:00,
2013-06-25 15:44:00,90.3,68.6,29.94,SSE,162,0.0,1.0,49,0.00,,---,0.00,VWS V14.01,2013-06-25 19:44:00,
2013-06-25 15:45:00,90.3,68.6,29.94,SSE,162,0.0,1.0,49,0.00,,---,0.00,VWS V14.01,2013-06-25 19:45:00,
2013-06-25 15:46:00,90.1,69.0,29.94,WSW,254,0.0,0.0,50,0.00,,---,0.00,VWS V14.01,2013-06-25 19:46:00,
2013-06-25 15:48:00,89.9,67.6,29.94,WNW,297,0.0,0.0,48,0.00,,---,0.00,VWS V14.01,2013-06-25 19:48:00,
2013-06-25 15:50:00,89.9,68.8,29.94,NW,323,0.0,1.0,50,0.00,,---,0.00,VWS V14.01,2013-06-25 19:50:00,
2013-06-25 15:52:00,89.9,69.4,29.94,NW,323,0.0,1.0,51,0.00,,---,0.00,VWS V14.01,2013-06-25 19:52:00,
2013-06-25 15:54:00,89.7,68.6,29.94,NW,323,0.0,1.0,50,0.00,,---,0.00,VWS V14.01,2013-06-25 19:54:00,
2013-06-25 15:56:00,89.9,68.8,29.94,NW,323,0.0,1.0,50,0.00,,---,0.00,VWS V14.01,2013-06-25 19:56:00,
2013-06-25 15:58:00,89.9,69.4,29.94,NW,323,0.0,1.0,51,0.00,,---,0.00,VWS V14.01,2013-06-25 19:58:00,
2013-06-25 16:00:00,89.9,71.0,29.94,NW,323,0.0,1.0,54,0.00,,---,0.00,VWS V14.01,2013-06-25 20:00:00,
2013-06-25 16:02:00,89.9,70.5,29.94,NW,323,0.0,0.0,53,0.00,,---,0.00,VWS V14.01,2013-06-25 20:02:00,
2013-06-25 16:06:00,90.1,70.1,29.94,WNW,293,0.0,0.0,52,0.00,,---,0.00,VWS V14.01,2013-06-25 20:06:00,
2013-06-25 16:08:00,90.3,69.2,29.94,WNW,290,0.0,0.0,50,0.00,,---,0.00,VWS V14.01,2013-06-25 20:08:00,
2013-06-25 16:10:00,90.3,70.3,29.94,NW,307,0.0,0.0,52,0.00,,---,0.00,VWS V14.01,2013-06-25 20:10:00,
2013-06-25 16:12:00,90.3,70.3,29.94,NW,322,1.0,1.0,52,0.00,,---,0.00,VWS V14.01,2013-06-25 20:12:00,
2013-06-25 16:15:00,89.9,68.2,29.94,NNW,347,0.0,4.0,49,0.00,,---,0.00,VWS V14.01,2013-06-25 20:15:00,
2013-06-25 16:16:00,89.9,69.4,29.94,NNW,347,0.0,1.0,51,0.00,,---,0.00,VWS V14.01,2013-06-25 20:16:00,
2013-06-25 16:17:00,90.1,69.0,29.94,WNW,293,0.0,0.0,50,0.00,,---,0.00,VWS V14.01,2013-06-25 20:17:00,
2013-06-25 16:18:00,89.7,70.3,29.94,NNW,347,0.0,1.0,53,0.00,,---,0.00,VWS V14.01,2013-06-25 20:18:00,
2013-06-25 16:20:00,89.9,69.4,29.94,NNW,347,0.0,1.0,51,0.00,,---,0.00,VWS V14.01,2013-06-25 20:20:00,
2013-06-25 16:26:00,89.9,68.2,29.94,NNW,347,0.0,2.0,49,0.00,,---,0.00,VWS V14.01,2013-06-25 20:26:00,
2013-06-25 16:27:00,90.1,68.4,29.94,NNW,347,0.0,4.0,49,0.00,,---,0.00,VWS V14.01,2013-06-25 20:27:00,
2013-06-25 16:28:00,89.7,67.4,29.94,NNW,347,0.0,2.0,48,0.00,,---,0.00,VWS V14.01,2013-06-25 20:28:00,
2013-06-25 16:30:00,89.7,66.2,29.94,NNW,347,0.0,2.0,46,0.00,,---,0.00,VWS V14.01,2013-06-25 20:30:00,
2013-06-25 16:32:00,89.5,66.6,29.94,NNW,347,0.0,0.0,47,0.00,,---,0.00,VWS V14.01,2013-06-25 20:32:00,
2013-06-25 16:35:00,90.1,70.1,29.94,NNW,347,0.0,2.0,52,0.00,,---,0.00,VWS V14.01,2013-06-25 20:35:00,
2013-06-25 16:36:00,89.0,64.3,29.94,SW,222,0.0,4.0,44,0.00,,---,0.00,VWS V14.01,2013-06-25 20:36:00,
2013-06-25 16:38:00,89.0,63.6,29.94,WNW,293,0.0,4.0,43,0.00,,---,0.00,VWS V14.01,2013-06-25 20:38:00,
2013-06-25 16:40:00,89.3,63.9,29.94,WNW,293,0.0,4.0,43,0.00,,---,0.00,VWS V14.01,2013-06-25 20:40:00,
2013-06-25 16:45:00,89.5,66.0,29.93,NNW,334,4.0,4.0,46,0.00,,---,0.00,VWS V14.01,2013-06-25 20:45:00,
2013-06-25 16:46:00,89.3,65.2,29.93,NNW,337,4.0,4.0,45,0.00,,---,0.00,VWS V14.01,2013-06-25 20:46:00,
2013-06-25 16:47:00,89.3,67.1,29.94,NNW,347,0.0,3.0,48,0.00,,---,0.00,VWS V14.01,2013-06-25 20:47:00,
2013-06-25 16:48:00,89.0,64.3,29.93,NNW,342,0.0,4.0,44,0.00,,---,0.00,VWS V14.01,2013-06-25 20:48:00,
2013-06-25 16:50:00,88.8,65.4,29.93,NNW,342,0.0,4.0,46,0.00,,---,0.00,VWS V14.01,2013-06-25 20:50:00,
2013-06-25 16:52:00,88.8,64.7,29.93,NNW,342,0.0,4.0,45,0.00,,---,0.00,VWS V14.01,2013-06-25 20:52:00,
2013-06-25 16:54:00,88.8,65.4,29.93,NNW,342,0.0,4.0,46,0.00,,---,0.00,VWS V14.01,2013-06-25 20:54:00,
2013-06-25 16:55:00,89.3,65.2,29.94,WNW,293,0.0,4.0,45,0.00,,---,0.00,VWS V14.01,2013-06-25 20:55:00,
2013-06-25 16:58:00,88.6,65.8,29.93,NNW,342,0.0,4.0,47,0.00,,---,0.00,VWS V14.01,2013-06-25 20:58:00,
2013-06-25 17:00:00,88.6,67.0,29.93,NNW,342,0.0,4.0,49,0.00,,---,0.00,VWS V14.01,2013-06-25 21:00:00,
2013-06-25 17:02:00,88.6,64.6,29.93,NNW,342,0.0,0.0,45,0.00,,---,0.00,VWS V14.01,2013-06-25 21:02:00,
2013-06-25 17:04:00,88.6,65.8,29.93,NNW,342,0.0,0.0,47,0.00,,---,0.00,VWS V14.01,2013-06-25 21:04:00,
2013-06-25 17:06:00,88.6,65.8,29.93,NNW,342,0.0,0.0,47,0.00,,---,0.00,VWS V14.01,2013-06-25 21:06:00,
2013-06-25 17:08:00,88.8,65.4,29.93,NNW,342,0.0,0.0,46,0.00,,---,0.00,VWS V14.01,2013-06-25 21:08:00,
2013-06-25 17:09:00,88.6,65.2,29.93,NNW,342,0.0,4.0,46,0.00,,---,0.00,VWS V14.01,2013-06-25 21:09:00,
2013-06-25 17:10:00,89.0,65.6,29.93,NNW,342,0.0,0.0,46,0.00,,---,0.00,VWS V14.01,2013-06-25 21:10:00,
2013-06-25 17:13:00,89.0,65.6,29.93,NNW,342,0.0,0.0,46,0.00,,---,0.00,VWS V14.01,2013-06-25 21:13:00,
2013-06-25 17:15:00,88.8,64.1,29.92,NNW,342,0.0,1.0,44,0.00,,---,0.00,VWS V14.01,2013-06-25 21:15:00,
2013-06-25 17:17:00,88.6,63.9,29.92,NNW,342,0.0,0.0,44,0.00,,---,0.00,VWS V14.01,2013-06-25 21:17:00,
2013-06-25 17:19:00,88.6,64.6,29.92,NNW,342,0.0,0.0,45,0.00,,---,0.00,VWS V14.01,2013-06-25 21:19:00,
2013-06-25 17:20:00,88.6,63.9,29.92,NNW,342,0.0,0.0,44,0.00,,---,0.00,VWS V14.01,2013-06-25 21:20:00,
2013-06-25 17:23:00,88.6,63.9,29.92,NNW,342,0.0,0.0,44,0.00,,---,0.00,VWS V14.01,2013-06-25 21:23:00,
2013-06-25 17:25:00,88.4,64.4,29.92,NNW,342,0.0,0.0,45,0.00,,---,0.00,VWS V14.01,2013-06-25 21:25:00,
2013-06-25 17:27:00,88.4,66.2,29.92,NNW,342,0.0,0.0,48,0.00,,---,0.00,VWS V14.01,2013-06-25 21:27:00,
2013-06-25 17:29:00,88.2,65.4,29.92,NNW,342,0.0,0.0,47,0.00,,---,0.00,VWS V14.01,2013-06-25 21:29:00,
2013-06-25 17:30:00,88.2,65.4,29.93,NNW,342,0.0,0.0,47,0.00,,---,0.00,VWS V14.01,2013-06-25 21:30:00,
2013-06-25 17:31:00,88.0,66.5,29.93,NNW,342,0.0,0.0,49,0.00,,---,0.00,VWS V14.01,2013-06-25 21:31:00,
2013-06-25 17:33:00,87.8,66.9,29.93,NNW,342,0.0,0.0,50,0.00,,---,0.00,VWS V14.01,2013-06-25 21:33:00,
2013-06-25 17:35:00,87.4,66.5,29.93,NNW,342,0.0,0.0,50,0.00,,---,0.00,VWS V14.01,2013-06-25 21:35:00,
2013-06-25 17:37:00,87.2,66.3,29.93,NNW,342,0.0,0.0,50,0.00,,---,0.00,VWS V14.01,2013-06-25 21:37:00,
2013-06-25 17:39:00,87.2,66.9,29.93,NNW,342,0.0,0.0,51,0.00,,---,0.00,VWS V14.01,2013-06-25 21:39:00,
2013-06-25 17:41:00,87.0,66.1,29.93,NNW,342,0.0,0.0,50,0.00,,---,0.00,VWS V14.01,2013-06-25 21:41:00,
2013-06-25 17:43:00,87.2,65.7,29.93,NNW,342,0.0,0.0,49,0.00,,---,0.00,VWS V14.01,2013-06-25 21:43:00,
2013-06-25 17:45:00,87.2,66.3,29.92,NNW,342,0.0,0.0,50,0.00,,---,0.00,VWS V14.01,2013-06-25 21:45:00,
2013-06-25 17:47:00,87.4,65.9,29.92,NNW,342,0.0,0.0,49,0.00,,---,0.00,VWS V14.01,2013-06-25 21:47:00,
2013-06-25 17:49:00,87.6,67.2,29.92,NNW,342,0.0,0.0,51,0.00,,---,0.00,VWS V14.01,2013-06-25 21:49:00,
2013-06-25 17:51:00,87.6,65.5,29.92,NNW,342,0.0,0.0,48,0.00,,---,0.00,VWS V14.01,2013-06-25 21:51:00,
2013-06-25 17:53:00,87.6,65.5,29.92,WNW,285,0.0,1.0,48,0.00,,---,0.00,VWS V14.01,2013-06-25 21:53:00,
2013-06-25 17:55:00,87.6,66.1,29.92,WNW,285,0.0,1.0,49,0.00,,---,0.00,VWS V14.01,2013-06-25 21:55:00,
2013-06-25 17:57:00,87.6,67.2,29.92,WNW,285,0.0,1.0,51,0.00,,---,0.00,VWS V14.01,2013-06-25 21:57:00,
2013-06-25 17:59:00,87.6,67.2,29.92,WNW,285,0.0,1.0,51,0.00,,---,0.00,VWS V14.01,2013-06-25 21:59:00,
2013-06-25 18:00:00,87.4,67.6,29.92,WNW,285,0.0,1.0,52,0.00,,---,0.00,VWS V14.01,2013-06-25 22:00:00,
2013-06-25 18:01:00,87.4,67.6,29.92,WNW,285,0.0,0.0,52,0.00,,---,0.00,VWS V14.01,2013-06-25 22:01:00,
2013-06-25 18:03:00,87.4,67.1,29.92,WNW,285,0.0,0.0,51,0.00,,---,0.00,VWS V14.01,2013-06-25 22:03:00,
2013-06-25 18:05:00,87.4,67.6,29.92,WNW,285,0.0,0.0,52,0.00,,---,0.00,VWS V14.01,2013-06-25 22:05:00,
2013-06-25 18:07:00,87.2,66.9,29.92,WNW,285,0.0,0.0,51,0.00,,---,0.00,VWS V14.01,2013-06-25 22:07:00,
2013-06-25 18:09:00,87.2,68.5,29.92,WNW,285,0.0,0.0,54,0.00,,---,0.00,VWS V14.01,2013-06-25 22:09:00,
2013-06-25 18:11:00,87.4,69.8,29.92,WNW,285,0.0,0.0,56,0.00,,---,0.00,VWS V14.01,2013-06-25 22:11:00,
2013-06-25 18:13:00,87.2,69.6,29.92,WNW,285,0.0,0.0,56,0.00,,---,0.00,VWS V14.01,2013-06-25 22:13:00,
2013-06-25 18:15:00,87.2,69.1,29.91,WNW,285,0.0,0.0,55,0.00,,---,0.00,VWS V14.01,2013-06-25 22:15:00,
2013-06-25 18:17:00,87.2,68.5,29.91,WNW,285,0.0,0.0,54,0.00,,---,0.00,VWS V14.01,2013-06-25 22:17:00,
2013-06-25 18:19:00,87.4,69.3,29.91,WNW,285,0.0,0.0,55,0.00,,---,0.00,VWS V14.01,2013-06-25 22:19:00,
2013-06-25 18:21:00,87.4,69.8,29.91,WNW,285,0.0,0.0,56,0.00,,---,0.00,VWS V14.01,2013-06-25 22:21:00,
2013-06-25 18:23:00,87.4,70.3,29.91,WNW,285,0.0,0.0,57,0.00,,---,0.00,VWS V14.01,2013-06-25 22:23:00,
2013-06-25 18:25:00,87.4,70.3,29.91,WNW,285,0.0,0.0,57,0.00,,---,0.00,VWS V14.01,2013-06-25 22:25:00,
2013-06-25 18:27:00,87.2,69.6,29.91,WNW,285,0.0,0.0,56,0.00,,---,0.00,VWS V14.01,2013-06-25 22:27:00,
2013-06-25 18:29:00,87.0,69.4,29.91,WNW,285,0.0,0.0,56,0.00,,---,0.00,VWS V14.01,2013-06-25 22:29:00,
2013-06-25 18:30:00,87.0,69.4,29.91,WNW,285,0.0,0.0,56,0.00,,---,0.00,VWS V14.01,2013-06-25 22:30:00,
2013-06-25 18:31:00,87.0,68.9,29.91,WNW,285,0.0,0.0,55,0.00,,---,0.00,VWS V14.01,2013-06-25 22:31:00,
2013-06-25 18:33:00,86.7,69.1,29.91,WNW,285,0.0,0.0,56,0.00,,---,0.00,VWS V14.01,2013-06-25 22:33:00,
2013-06-25 18:35:00,86.7,69.1,29.91,WNW,285,0.0,0.0,56,0.00,,---,0.00,VWS V14.01,2013-06-25 22:35:00,
2013-06-25 18:37:00,86.7,69.7,29.91,WNW,285,0.0,0.0,57,0.00,,---,0.00,VWS V14.01,2013-06-25 22:37:00,
2013-06-25 18:39:00,86.7,69.1,29.91,WNW,285,0.0,0.0,56,0.00,,---,0.00,VWS V14.01,2013-06-25 22:39:00,
2013-06-25 18:41:00,86.7,69.1,29.91,WNW,285,0.0,0.0,56,0.00,,---,0.00,VWS V14.01,2013-06-25 22:41:00,
2013-06-25 18:43:00,86.7,69.7,29.91,WNW,285,0.0,0.0,57,0.00,,---,0.00,VWS V14.01,2013-06-25 22:43:00,
2013-06-25 18:45:00,86.7,69.7,29.92,WNW,285,0.0,0.0,57,0.00,,---,0.00,VWS V14.01,2013-06-25 22:45:00,
2013-06-25 18:47:00,86.5,69.5,29.92,WNW,285,0.0,0.0,57,0.00,,---,0.00,VWS V14.01,2013-06-25 22:47:00,
2013-06-25 18:49:00,86.5,70.5,29.92,WNW,285,0.0,0.0,59,0.00,,---,0.00,VWS V14.01,2013-06-25 22:49:00,
2013-06-25 18:51:00,86.3,70.3,29.92,WNW,285,0.0,0.0,59,0.00,,---,0.00,VWS V14.01,2013-06-25 22:51:00,
2013-06-25 18:53:00,86.3,70.8,29.92,WNW,285,0.0,0.0,60,0.00,,---,0.00,VWS V14.01,2013-06-25 22:53:00,
2013-06-25 18:55:00,86.1,70.6,29.92,WNW,285,0.0,0.0,60,0.00,,---,0.00,VWS V14.01,2013-06-25 22:55:00,
2013-06-25 18:57:00,86.1,70.6,29.92,WNW,285,0.0,0.0,60,0.00,,---,0.00,VWS V14.01,2013-06-25 22:57:00,
2013-06-25 18:59:00,86.1,70.6,29.92,WNW,285,0.0,0.0,60,0.00,,---,0.00,VWS V14.01,2013-06-25 22:59:00,
2013-06-25 19:00:00,86.1,70.6,29.92,WNW,285,0.0,0.0,60,0.00,,---,0.00,VWS V14.01,2013-06-25 23:00:00,
2013-06-25 19:01:00,85.9,70.4,29.92,WNW,285,0.0,0.0,60,0.00,,---,0.00,VWS V14.01,2013-06-25 23:01:00,
2013-06-25 19:03:00,85.9,69.9,29.92,WNW,285,0.0,0.0,59,0.00,,---,0.00,VWS V14.01,2013-06-25 23:03:00,
2013-06-25 19:05:00,85.9,69.9,29.92,WNW,285,0.0,0.0,59,0.00,,---,0.00,VWS V14.01,2013-06-25 23:05:00,
2013-06-25 19:07:00,85.7,70.2,29.92,WNW,285,0.0,0.0,60,0.00,,---,0.00,VWS V14.01,2013-06-25 23:07:00,
2013-06-25 19:09:00,85.7,70.2,29.92,WNW,285,0.0,0.0,60,0.00,,---,0.00,VWS V14.01,2013-06-25 23:09:00,
2013-06-25 19:11:00,85.5,70.5,29.92,WNW,285,0.0,0.0,61,0.00,,---,0.00,VWS V14.01,2013-06-25 23:11:00,
2013-06-25 19:13:00,85.5,70.5,29.92,WNW,285,0.0,0.0,61,0.00,,---,0.00,VWS V14.01,2013-06-25 23:13:00,
2013-06-25 19:15:00,85.3,70.3,29.91,WNW,285,0.0,0.0,61,0.00,,---,0.00,VWS V14.01,2013-06-25 23:15:00,
2013-06-25 19:17:00,85.3,70.3,29.91,WNW,285,0.0,0.0,61,0.00,,---,0.00,VWS V14.01,2013-06-25 23:17:00,
2013-06-25 19:19:00,85.1,70.2,29.91,WNW,285,0.0,0.0,61,0.00,,---,0.00,VWS V14.01,2013-06-25 23:19:00,
2013-06-25 19:21:00,85.1,70.2,29.91,WNW,285,0.0,0.0,61,0.00,,---,0.00,VWS V14.01,2013-06-25 23:21:00,
2013-06-25 19:23:00,84.9,70.0,29.91,WNW,285,0.0,0.0,61,0.00,,---,0.00,VWS V14.01,2013-06-25 23:23:00,
2013-06-25 19:25:00,84.7,70.2,29.91,WNW,285,0.0,0.0,62,0.00,,---,0.00,VWS V14.01,2013-06-25 23:25:00,
2013-06-25 19:27:00,84.5,69.6,29.91,West,260,0.0,3.0,61,0.00,,---,0.00,VWS V14.01,2013-06-25 23:27:00,
2013-06-25 19:29:00,84.3,69.4,29.90,West,260,0.0,3.0,61,0.00,,---,0.00,VWS V14.01,2013-06-25 23:29:00,
2013-06-25 19:30:00,84.3,69.9,29.90,West,260,0.0,3.0,62,0.00,,---,0.00,VWS V14.01,2013-06-25 23:30:00,
2013-06-25 19:31:00,84.3,70.3,29.90,West,260,0.0,0.0,63,0.00,,---,0.00,VWS V14.01,2013-06-25 23:31:00,
2013-06-25 19:33:00,84.1,70.6,29.90,West,260,0.0,0.0,64,0.00,,---,0.00,VWS V14.01,2013-06-25 23:33:00,
2013-06-25 19:35:00,84.0,71.4,29.90,West,260,0.0,0.0,66,0.00,,---,0.00,VWS V14.01,2013-06-25 23:35:00,
2013-06-25 19:37:00,83.8,71.2,29.90,West,260,0.0,1.0,66,0.00,,---,0.00,VWS V14.01,2013-06-25 23:37:00,
2013-06-25 19:39:00,83.6,71.1,29.90,West,260,0.0,1.0,66,0.00,,---,0.00,VWS V14.01,2013-06-25 23:39:00,
2013-06-25 19:41:00,83.4,70.9,29.90,West,260,0.0,1.0,66,0.00,,---,0.00,VWS V14.01,2013-06-25 23:41:00,
2013-06-25 19:43:00,83.4,71.3,29.90,West,260,0.0,1.0,67,0.00,,---,0.00,VWS V14.01,2013-06-25 23:43:00,
2013-06-25 19:45:00,83.2,71.1,29.91,West,260,0.0,1.0,67,0.00,,---,0.00,VWS V14.01,2013-06-25 23:45:00,
2013-06-25 19:47:00,83.2,70.7,29.91,West,260,0.0,0.0,66,0.00,,---,0.00,VWS V14.01,2013-06-25 23:47:00,
2013-06-25 19:49:00,83.0,70.5,29.91,West,260,0.0,0.0,66,0.00,,---,0.00,VWS V14.01,2013-06-25 23:49:00,
2013-06-25 19:51:00,83.0,70.5,29.91,West,260,0.0,0.0,66,0.00,,---,0.00,VWS V14.01,2013-06-25 23:51:00,
2013-06-25 19:53:00,83.0,70.9,29.91,West,260,0.0,0.0,67,0.00,,---,0.00,VWS V14.01,2013-06-25 23:53:00,
2013-06-25 19:55:00,82.8,71.2,29.91,SSE,154,0.0,4.0,68,0.00,,---,0.00,VWS V14.01,2013-06-25 23:55:00,
2013-06-25 19:57:00,82.6,70.1,29.91,SSE,167,0.0,5.0,66,0.00,,---,0.00,VWS V14.01,2013-06-25 23:57:00,
2013-06-25 19:59:00,82.4,69.9,29.91,South,179,0.0,5.0,66,0.00,,---,0.00,VWS V14.01,2013-06-25 23:59:00,
2013-06-25 20:00:00,82.4,69.9,29.91,South,179,0.0,5.0,66,0.00,,---,0.00,VWS V14.01,2013-06-26 00:00:00,
2013-06-25 20:01:00,82.2,69.7,29.91,SSE,161,3.0,9.0,66,0.00,,---,0.00,VWS V14.01,2013-06-26 00:01:00,
2013-06-25 20:03:00,82.0,68.6,29.91,SSE,166,0.0,9.0,64,0.00,,---,0.00,VWS V14.01,2013-06-26 00:03:00,
2013-06-25 20:05:00,82.0,68.6,29.91,SSE,160,0.0,9.0,64,0.00,,---,0.00,VWS V14.01,2013-06-26 00:05:00,
2013-06-25 20:07:00,81.8,68.9,29.91,SSE,160,0.0,9.0,65,0.00,,---,0.00,VWS V14.01,2013-06-26 00:07:00,
2013-06-25 20:09:00,81.6,68.7,29.91,SSE,160,0.0,9.0,65,0.00,,---,0.00,VWS V14.01,2013-06-26 00:09:00,
2013-06-25 20:11:00,81.6,68.7,29.91,SSE,160,0.0,9.0,65,0.00,,---,0.00,VWS V14.01,2013-06-26 00:11:00,
2013-06-25 20:13:00,81.4,68.5,29.91,SSE,160,0.0,9.0,65,0.00,,---,0.00,VWS V14.01,2013-06-26 00:13:00,
2013-06-25 20:15:00,81.4,68.5,29.90,SSE,160,0.0,9.0,65,0.00,,---,0.00,VWS V14.01,2013-06-26 00:15:00,
2013-06-25 20:17:00,81.2,68.8,29.90,SSE,160,0.0,0.0,66,0.00,,---,0.00,VWS V14.01,2013-06-26 00:17:00,
2013-06-25 20:21:00,81.1,68.7,29.90,SSE,160,0.0,0.0,66,0.00,,---,0.00,VWS V14.01,2013-06-26 00:21:00,
2013-06-25 20:23:00,80.9,68.5,29.90,SSE,160,0.0,0.0,66,0.00,,---,0.00,VWS V14.01,2013-06-26 00:23:00,
2013-06-25 20:27:00,80.5,69.0,29.90,SSE,160,0.0,0.0,68,0.00,,---,0.00,VWS V14.01,2013-06-26 00:27:00,
2013-06-25 20:30:00,80.3,68.8,29.92,SSE,160,0.0,0.0,68,0.00,,---,0.00,VWS V14.01,2013-06-26 00:30:00,
2013-06-25 20:31:00,80.3,68.8,29.92,SSE,160,0.0,0.0,68,0.00,,---,0.00,VWS V14.01,2013-06-26 00:31:00,
2013-06-25 20:32:00,81.2,68.8,29.90,SSE,160,0.0,0.0,66,0.00,,---,0.00,VWS V14.01,2013-06-26 00:32:00,
2013-06-25 20:33:00,80.1,69.0,29.92,SSE,160,0.0,0.0,69,0.00,,---,0.00,VWS V14.01,2013-06-26 00:33:00,
2013-06-25 20:35:00,80.1,68.6,29.92,NNW,340,4.0,5.0,68,0.00,,---,0.00,VWS V14.01,2013-06-26 00:35:00,
2013-06-25 20:37:00,79.9,68.8,29.92,NNW,340,0.0,5.0,69,0.00,,---,0.00,VWS V14.01,2013-06-26 00:37:00,
2013-06-25 20:38:00,80.7,69.2,29.90,SSE,160,0.0,0.0,68,0.00,,---,0.00,VWS V14.01,2013-06-26 00:38:00,
2013-06-25 20:39:00,79.8,69.2,29.92,NNW,340,0.0,5.0,70,0.00,,---,0.00,VWS V14.01,2013-06-26 00:39:00,
2013-06-25 20:41:00,79.6,69.0,29.92,NNW,340,0.0,5.0,70,0.00,,---,0.00,VWS V14.01,2013-06-26 00:41:00,
2013-06-25 20:43:00,79.4,68.8,29.92,NNW,340,0.0,5.0,70,0.00,,---,0.00,VWS V14.01,2013-06-26 00:43:00,
2013-06-25 20:45:00,79.2,69.0,29.92,NNW,340,0.0,5.0,71,0.00,,---,0.00,VWS V14.01,2013-06-26 00:45:00,
2013-06-25 20:47:00,79.0,68.8,29.92,NNW,340,0.0,0.0,71,0.00,,---,0.00,VWS V14.01,2013-06-26 00:47:00,
2013-06-25 20:50:00,79.0,68.8,29.92,NNW,340,0.0,0.0,71,0.00,,---,0.00,VWS V14.01,2013-06-26 00:50:00,
2013-06-25 20:51:00,78.8,69.0,29.92,NNW,340,0.0,1.0,72,0.00,,---,0.00,VWS V14.01,2013-06-26 00:51:00,
2013-06-25 20:54:00,78.6,68.8,29.92,NNW,340,0.0,1.0,72,0.00,,---,0.00,VWS V14.01,2013-06-26 00:54:00,
2013-06-25 20:56:00,78.5,68.7,29.92,NNW,340,0.0,1.0,72,0.00,,---,0.00,VWS V14.01,2013-06-26 00:56:00,
2013-06-25 20:58:00,78.5,68.7,29.92,NNW,340,0.0,1.0,72,0.00,,---,0.00,VWS V14.01,2013-06-26 00:58:00,
2013-06-25 21:00:00,78.3,68.5,29.92,NNW,340,0.0,1.0,72,0.00,,---,0.00,VWS V14.01,2013-06-26 01:00:00,
2013-06-25 21:02:00,78.3,68.9,29.92,NNW,340,0.0,0.0,73,0.00,,---,0.00,VWS V14.01,2013-06-26 01:02:00,
2013-06-25 21:04:00,78.3,69.3,29.92,NNW,340,0.0,0.0,74,0.00,,---,0.00,VWS V14.01,2013-06-26 01:04:00,
2013-06-25 21:06:00,78.1,68.8,29.92,NNW,340,0.0,0.0,73,0.00,,---,0.00,VWS V14.01,2013-06-26 01:06:00,
2013-06-25 21:08:00,78.1,68.8,29.92,NNW,340,0.0,0.0,73,0.00,,---,0.00,VWS V14.01,2013-06-26 01:08:00,
2013-06-25 21:10:00,78.1,69.1,29.92,NNW,340,0.0,0.0,74,0.00,,---,0.00,VWS V14.01,2013-06-26 01:10:00,
2013-06-25 21:12:00,77.9,68.9,29.92,NNW,340,0.0,0.0,74,0.00,,---,0.00,VWS V14.01,2013-06-26 01:12:00,
2013-06-25 21:14:00,77.9,69.3,29.92,NNW,340,0.0,0.0,75,0.00,,---,0.00,VWS V14.01,2013-06-26 01:14:00,
2013-06-25 21:15:00,77.7,69.2,29.93,NNW,340,0.0,0.0,75,0.00,,---,0.00,VWS V14.01,2013-06-26 01:15:00,
2013-06-25 21:16:00,77.7,69.2,29.93,NNW,340,0.0,0.0,75,0.00,,---,0.00,VWS V14.01,2013-06-26 01:16:00,
2013-06-25 21:18:00,77.6,69.1,29.93,NNW,340,0.0,0.0,75,0.00,,---,0.00,VWS V14.01,2013-06-26 01:18:00,
2013-06-25 21:20:00,77.6,69.1,29.93,NNW,340,0.0,0.0,75,0.00,,---,0.00,VWS V14.01,2013-06-26 01:20:00,
2013-06-25 21:22:00,77.6,69.1,29.93,NNW,340,0.0,0.0,75,0.00,,---,0.00,VWS V14.01,2013-06-26 01:22:00,
2013-06-25 21:24:00,77.6,69.1,29.93,NNW,340,0.0,0.0,75,0.00,,---,0.00,VWS V14.01,2013-06-26 01:24:00,
2013-06-25 21:26:00,77.4,68.9,29.93,NNW,340,0.0,0.0,75,0.00,,---,0.00,VWS V14.01,2013-06-26 01:26:00,
2013-06-25 21:28:00,77.4,68.9,29.93,NNW,340,0.0,0.0,75,0.00,,---,0.00,VWS V14.01,2013-06-26 01:28:00,
2013-06-25 21:30:00,77.4,68.9,29.94,NNW,340,0.0,0.0,75,0.00,,---,0.00,VWS V14.01,2013-06-26 01:30:00,
2013-06-25 21:32:00,77.4,68.9,29.94,NNW,340,0.0,0.0,75,0.00,,---,0.00,VWS V14.01,2013-06-26 01:32:00,
2013-06-25 21:34:00,77.4,69.2,29.94,NNW,340,0.0,0.0,76,0.00,,---,0.00,VWS V14.01,2013-06-26 01:34:00,
2013-06-25 21:36:00,77.4,69.2,29.94,NNW,340,0.0,0.0,76,0.00,,---,0.00,VWS V14.01,2013-06-26 01:36:00,
2013-06-25 21:38:00,77.4,69.2,29.94,NNW,340,0.0,0.0,76,0.00,,---,0.00,VWS V14.01,2013-06-26 01:38:00,
2013-06-25 21:40:00,77.4,69.2,29.94,NNW,340,0.0,0.0,76,0.00,,---,0.00,VWS V14.01,2013-06-26 01:40:00,
2013-06-25 21:42:00,77.4,69.2,29.94,NNW,340,0.0,0.0,76,0.00,,---,0.00,VWS V14.01,2013-06-26 01:42:00,
2013-06-25 21:44:00,77.4,69.2,29.95,NNW,340,0.0,0.0,76,0.00,,---,0.00,VWS V14.01,2013-06-26 01:44:00,
2013-06-25 21:45:00,77.4,69.2,29.95,NNW,340,0.0,0.0,76,0.00,,---,0.00,VWS V14.01,2013-06-26 01:45:00,
2013-06-25 21:46:00,77.4,69.2,29.95,NNW,340,0.0,0.0,76,0.00,,---,0.00,VWS V14.01,2013-06-26 01:46:00,
2013-06-25 21:48:00,77.4,69.2,29.95,NNW,340,0.0,0.0,76,0.00,,---,0.00,VWS V14.01,2013-06-26 01:48:00,
2013-06-25 21:50:00,77.4,69.2,29.95,NNW,340,0.0,0.0,76,0.00,,---,0.00,VWS V14.01,2013-06-26 01:50:00,
2013-06-25 21:52:00,77.4,69.2,29.95,NNW,340,0.0,0.0,76,0.00,,---,0.00,VWS V14.01,2013-06-26 01:52:00,
2013-06-25 21:54:00,77.4,69.2,29.95,NNW,340,0.0,0.0,76,0.00,,---,0.00,VWS V14.01,2013-06-26 01:54:00,
2013-06-25 21:56:00,77.2,69.1,29.95,NNW,340,0.0,0.0,76,0.00,,---,0.00,VWS V14.01,2013-06-26 01:56:00,
2013-06-25 21:58:00,77.2,69.4,29.95,NNW,340,0.0,0.0,77,0.00,,---,0.00,VWS V14.01,2013-06-26 01:58:00,
2013-06-25 22:00:00,77.2,69.4,29.94,NNW,340,0.0,0.0,77,0.00,,---,0.00,VWS V14.01,2013-06-26 02:00:00,
2013-06-25 22:02:00,77.2,69.4,29.94,NNW,340,0.0,0.0,77,0.00,,---,0.00,VWS V14.01,2013-06-26 02:02:00,
2013-06-25 22:04:00,77.0,69.6,29.94,NNW,340,0.0,0.0,78,0.00,,---,0.00,VWS V14.01,2013-06-26 02:04:00,
2013-06-25 22:06:00,76.8,69.8,29.94,NNW,340,0.0,0.0,79,0.00,,---,0.00,VWS V14.01,2013-06-26 02:06:00,
2013-06-25 22:08:00,76.8,69.8,29.94,NNW,340,0.0,0.0,79,0.00,,---,0.00,VWS V14.01,2013-06-26 02:08:00,
2013-06-25 22:10:00,76.7,70.1,29.94,NNW,340,0.0,0.0,80,0.00,,---,0.00,VWS V14.01,2013-06-26 02:10:00,
2013-06-25 22:12:00,76.5,69.9,29.94,NNW,340,0.0,0.0,80,0.00,,---,0.00,VWS V14.01,2013-06-26 02:12:00,
2013-06-25 22:14:00,76.5,69.9,29.94,NNW,340,0.0,0.0,80,0.00,,---,0.00,VWS V14.01,2013-06-26 02:14:00,
2013-06-25 22:15:00,76.3,69.7,29.94,NNW,340,0.0,0.0,80,0.00,,---,0.00,VWS V14.01,2013-06-26 02:15:00,
2013-06-25 22:16:00,76.3,69.7,29.94,NNW,340,0.0,0.0,80,0.00,,---,0.00,VWS V14.01,2013-06-26 02:16:00,
2013-06-25 22:18:00,76.3,69.7,29.94,NNW,340,0.0,0.0,80,0.00,,---,0.00,VWS V14.01,2013-06-26 02:18:00,
2013-06-25 22:20:00,76.1,69.5,29.94,NNW,340,0.0,0.0,80,0.00,,---,0.00,VWS V14.01,2013-06-26 02:20:00,
2013-06-25 22:22:00,76.1,69.5,29.94,NNW,340,0.0,0.0,80,0.00,,---,0.00,VWS V14.01,2013-06-26 02:22:00,
2013-06-25 22:24:00,76.1,69.5,29.94,NNW,340,0.0,0.0,80,0.00,,---,0.00,VWS V14.01,2013-06-26 02:24:00,
2013-06-25 22:26:00,76.0,69.4,29.94,NNW,340,0.0,0.0,80,0.00,,---,0.00,VWS V14.01,2013-06-26 02:26:00,
2013-06-25 22:28:00,76.0,69.8,29.94,NNW,340,0.0,0.0,81,0.00,,---,0.00,VWS V14.01,2013-06-26 02:28:00,
2013-06-25 22:30:00,76.0,69.8,29.94,NNW,340,0.0,0.0,81,0.00,,---,0.00,VWS V14.01,2013-06-26 02:30:00,
2013-06-25 22:32:00,76.0,69.8,29.94,NNW,340,0.0,0.0,81,0.00,,---,0.00,VWS V14.01,2013-06-26 02:32:00,
2013-06-25 22:34:00,75.8,69.6,29.94,NNW,340,0.0,0.0,81,0.00,,---,0.00,VWS V14.01,2013-06-26 02:34:00,
2013-06-25 22:36:00,75.8,69.6,29.94,NNW,340,0.0,0.0,81,0.00,,---,0.00,VWS V14.01,2013-06-26 02:36:00,
2013-06-25 22:38:00,75.8,69.9,29.94,NNW,340,0.0,0.0,82,0.00,,---,0.00,VWS V14.01,2013-06-26 02:38:00,
2013-06-25 22:40:00,75.8,69.9,29.94,NNW,340,0.0,0.0,82,0.00,,---,0.00,VWS V14.01,2013-06-26 02:40:00,
2013-06-25 22:42:00,75.6,69.7,29.94,NNW,340,0.0,0.0,82,0.00,,---,0.00,VWS V14.01,2013-06-26 02:42:00,
2013-06-25 22:44:00,75.6,69.7,29.95,NNW,340,0.0,0.0,82,0.00,,---,0.00,VWS V14.01,2013-06-26 02:44:00,
2013-06-25 22:45:00,75.6,70.1,29.95,NNW,340,0.0,0.0,83,0.00,,---,0.00,VWS V14.01,2013-06-26 02:45:00,
2013-06-25 22:46:00,75.4,69.5,29.95,NNW,340,0.0,0.0,82,0.00,,---,0.00,VWS V14.01,2013-06-26 02:46:00,
2013-06-25 22:48:00,75.4,69.5,29.95,NNW,340,0.0,0.0,82,0.00,,---,0.00,VWS V14.01,2013-06-26 02:48:00,
2013-06-25 22:50:00,75.4,69.5,29.95,NNW,340,0.0,0.0,82,0.00,,---,0.00,VWS V14.01,2013-06-26 02:50:00,
2013-06-25 22:52:00,75.4,69.5,29.95,NNW,340,0.0,0.0,82,0.00,,---,0.00,VWS V14.01,2013-06-26 02:52:00,
2013-06-25 22:54:00,75.4,69.9,29.95,NNW,340,0.0,0.0,83,0.00,,---,0.00,VWS V14.01,2013-06-26 02:54:00,
2013-06-25 22:56:00,75.4,69.9,29.95,NNW,340,0.0,0.0,83,0.00,,---,0.00,VWS V14.01,2013-06-26 02:56:00,
2013-06-25 22:58:00,75.3,70.1,29.95,NNW,340,0.0,0.0,84,0.00,,---,0.00,VWS V14.01,2013-06-26 02:58:00,
2013-06-25 23:00:00,75.3,70.1,29.95,NNW,340,0.0,0.0,84,0.00,,---,0.00,VWS V14.01,2013-06-26 03:00:00,
2013-06-25 23:02:00,75.3,70.1,29.95,NNW,340,0.0,0.0,84,0.00,,---,0.00,VWS V14.01,2013-06-26 03:02:00,
2013-06-25 23:04:00,75.1,69.6,29.95,NNW,340,0.0,0.0,83,0.00,,---,0.00,VWS V14.01,2013-06-26 03:04:00,
2013-06-25 23:06:00,75.1,69.6,29.95,NNW,340,0.0,0.0,83,0.00,,---,0.00,VWS V14.01,2013-06-26 03:06:00,
2013-06-25 23:08:00,75.1,69.6,29.95,NNW,340,0.0,0.0,83,0.00,,---,0.00,VWS V14.01,2013-06-26 03:08:00,
2013-06-25 23:10:00,75.1,69.9,29.95,NNW,340,0.0,0.0,84,0.00,,---,0.00,VWS V14.01,2013-06-26 03:10:00,
2013-06-25 23:12:00,75.1,69.9,29.95,NNW,340,0.0,0.0,84,0.00,,---,0.00,VWS V14.01,2013-06-26 03:12:00,
2013-06-25 23:14:00,75.1,69.9,29.93,NNW,340,0.0,0.0,84,0.00,,---,0.00,VWS V14.01,2013-06-26 03:14:00,
2013-06-25 23:15:00,75.1,69.9,29.93,NNW,340,0.0,0.0,84,0.00,,---,0.00,VWS V14.01,2013-06-26 03:15:00,
2013-06-25 23:16:00,75.1,69.6,29.93,NNW,340,0.0,0.0,83,0.00,,---,0.00,VWS V14.01,2013-06-26 03:16:00,
2013-06-25 23:18:00,75.1,69.6,29.93,NNW,340,0.0,0.0,83,0.00,,---,0.00,VWS V14.01,2013-06-26 03:18:00,
2013-06-25 23:20:00,75.1,69.6,29.93,NNW,340,0.0,0.0,83,0.00,,---,0.00,VWS V14.01,2013-06-26 03:20:00,
2013-06-25 23:22:00,75.1,69.6,29.93,NNW,340,0.0,0.0,83,0.00,,---,0.00,VWS V14.01,2013-06-26 03:22:00,
2013-06-25 23:24:00,75.1,69.6,29.93,NNW,340,0.0,0.0,83,0.00,,---,0.00,VWS V14.01,2013-06-26 03:24:00,
2013-06-25 23:26:00,75.1,69.6,29.93,NNW,340,0.0,0.0,83,0.00,,---,0.00,VWS V14.01,2013-06-26 03:26:00,
2013-06-25 23:28:00,75.1,69.6,29.93,NNW,340,0.0,0.0,83,0.00,,---,0.00,VWS V14.01,2013-06-26 03:28:00,
2013-06-25 23:30:00,75.1,69.6,29.93,NNW,340,0.0,0.0,83,0.00,,---,0.00,VWS V14.01,2013-06-26 03:30:00,
2013-06-25 23:32:00,75.1,69.6,29.93,NNW,340,0.0,0.0,83,0.00,,---,0.00,VWS V14.01,2013-06-26 03:32:00,
2013-06-25 23:34:00,75.1,69.6,29.93,NNW,340,0.0,0.0,83,0.00,,---,0.00,VWS V14.01,2013-06-26 03:34:00,
2013-06-25 23:36:00,75.1,69.6,29.93,NNW,340,0.0,0.0,83,0.00,,---,0.00,VWS V14.01,2013-06-26 03:36:00,
2013-06-25 23:38:00,75.1,69.6,29.93,NNW,340,0.0,0.0,83,0.00,,---,0.00,VWS V14.01,2013-06-26 03:38:00,
2013-06-25 23:40:00,75.1,69.6,29.93,NNW,340,0.0,0.0,83,0.00,,---,0.00,VWS V14.01,2013-06-26 03:40:00,
2013-06-25 23:42:00,75.1,69.6,29.93,NNW,340,2.0,2.0,83,0.00,,---,0.00,VWS V14.01,2013-06-26 03:42:00,
2013-06-25 23:44:00,74.9,69.4,29.93,NNW,340,0.0,2.0,83,0.00,,---,0.00,VWS V14.01,2013-06-26 03:44:00,
2013-06-25 23:45:00,74.9,69.4,29.93,NNW,340,0.0,2.0,83,0.00,,---,0.00,VWS V14.01,2013-06-26 03:45:00,
2013-06-25 23:46:00,74.9,69.4,29.93,NNW,340,0.0,0.0,83,0.00,,---,0.00,VWS V14.01,2013-06-26 03:46:00,
2013-06-25 23:48:00,74.9,69.4,29.93,NNW,340,0.0,0.0,83,0.00,,---,0.00,VWS V14.01,2013-06-26 03:48:00,
2013-06-25 23:50:00,74.9,69.4,29.93,NNW,340,0.0,0.0,83,0.00,,---,0.00,VWS V14.01,2013-06-26 03:50:00,
2013-06-25 23:52:00,74.9,69.4,29.93,NNW,340,0.0,0.0,83,0.00,,---,0.00,VWS V14.01,2013-06-26 03:52:00,
2013-06-25 23:54:00,74.9,69.7,29.93,NNW,340,0.0,0.0,84,0.00,,---,0.00,VWS V14.01,2013-06-26 03:54:00,
2013-06-25 23:56:00,74.7,69.2,29.93,NNW,340,0.0,0.0,83,0.00,,---,0.00,VWS V14.01,2013-06-26 03:56:00,
2013-06-25 23:58:00,74.7,69.2,29.93,NNW,340,0.0,0.0,83,0.00,,---,0.00,VWS V14.01,2013-06-26 03:58:00,